﻿ProjectID	SampleID	SampleType	TaxonomyID	UniqCodeType	UniqCode	SampleName	ScientificName	CommonName	CollectionYear	CollectionMonth	CollectionDay	SamplingTimeStartEnd	SamplingTimeAMPM	SamplingDuration	WeatherStartEnd	CollectionRegion	CollectionCountry	CollectionArea	CollectionLatitudeFrom	CollectionLatitudeTo	CollectionLongitudeFrom	CollectionLongitudeTo	Sex	TissueOrgan	TissueLipid	TissueMoist	Weight	WeightUnit	Length	LengthUnit	LengthType	GrowthStage	Age	Disease	TemperatureStartEnd	WaterTemperatureStartEnd	pH	DO	EC	EC_temp	Salinity	SS	WaterDepthM	TransparencyM	WaterColor	SedimentTemperatureStartEnd	SedimentDepthM	SedimentAppearance	SedimentColor	SedimentSurfaceColor	SedimentOdor	SedimentImpurities	SedimentMoistureOnSiteAnalysis	IgnitionLossOnSiteAnalysis	SoilDepthM	FlowRate	MeanPM10	MeanTotalSuspendedParticles	HumidityStartEnd	WindDirectionStartEnd	WindSpeedMSStartEnd	AmountOfCollectedAirStartEnd	Remarks	RegisterDate	UpdateDate
PRA000020	SAA000760	ST008	217509			CF1	"Carassius carassius"	"Crucian carp"	2011	11	2					Asia	Japan	Kumamoto	32.09472222	33.19527778	129.9402778	131.3294444	Female	Plasma			1000	g	32	cm	"Body length"																																	2017/1/13	2017/1/13
PRA000020	SAA000761	ST008	217509			CF2	"Carassius carassius"	"Crucian carp"	2011	11	2					Asia	Japan	Kumamoto	32.09472222	33.19527778	129.9402778	131.3294444	Female	Plasma			650	g	27	cm	"Body length"																																	2017/1/13	2017/1/13
PRA000020	SAA000762	ST008	217509			CF3	"Carassius carassius"	"Crucian carp"	2011	11	2					Asia	Japan	Kumamoto	32.09472222	33.19527778	129.9402778	131.3294444	Male	Plasma			630	g	27	cm	"Body length"																																	2017/1/13	2017/1/13
PRA000020	SAA000763	ST008	217509			CF4	"Carassius carassius"	"Crucian carp"	2011	11	2					Asia	Japan	Kumamoto	32.09472222	33.19527778	129.9402778	131.3294444	Female	Plasma			510	g	27.5	cm	"Body length"																																	2017/1/13	2017/1/13
PRA000020	SAA000764	ST008	217509			CF5	"Carassius carassius"	"Crucian carp"	2011	11	2					Asia	Japan	Kumamoto	32.09472222	33.19527778	129.9402778	131.3294444	Female	Plasma			500	g	27	cm	"Body length"																																	2017/1/13	2017/1/13
PRA000020	SAA000765	ST008	217509			CF6	"Carassius carassius"	"Crucian carp"	2011	11	2					Asia	Japan	Kumamoto	32.09472222	33.19527778	129.9402778	131.3294444	Male	Plasma			550	g	25	cm	"Body length"																																	2017/1/13	2017/1/13
PRA000020	SAA000766	ST008	217509	es-BANK	"EF15380 "	CF7	"Carassius carassius"	"Crucian carp"	2013	8	8					Asia	Japan	Ehime	32.88472222	34.30166667	132.0125	133.6930556	Female	Plasma			640	g	27.5	cm	"Body length"																																	2017/1/13	2017/1/13
PRA000020	SAA000767	ST008	217509	es-BANK	"EF15381 "	CF8	"Carassius carassius"	"Crucian carp"	2013	8	8					Asia	Japan	Ehime	32.88472222	34.30166667	132.0125	133.6930556	Female	Plasma			590	g	27	cm	"Body length"																																	2017/1/13	2017/1/13
PRA000020	SAA000768	ST008	217509	es-BANK	"EF15382 "	CF9	"Carassius carassius"	"Crucian carp"	2013	8	8					Asia	Japan	Ehime	32.88472222	34.30166667	132.0125	133.6930556	Female	Plasma			800	g	29	cm	"Body length"																																	2017/1/13	2017/1/13
PRA000020	SAA000769	ST008	217509	es-BANK	"EF15383 "	CF10	"Carassius carassius"	"Crucian carp"	2013	8	8					Asia	Japan	Ehime	32.88472222	34.30166667	132.0125	133.6930556	Female	Plasma			710	g	26.5	cm	"Body length"																																	2017/1/13	2017/1/13
PRA000020	SAA000770	ST008	217509	es-BANK	"EF15384 "	CF11	"Carassius carassius"	"Crucian carp"	2013	8	8					Asia	Japan	Ehime	32.88472222	34.30166667	132.0125	133.6930556	unknown	Plasma			150	g	16.5	cm	"Body length"																																	2017/1/13	2017/1/13
PRA000020	SAA000771	ST008	7962	es-BANK	"EF15385 "	CF12	"Cyprinus carpio"	"Common carp"	2013	8	8					Asia	Japan	Ehime	32.88472222	34.30166667	132.0125	133.6930556	unknown	Plasma			270	g	22	cm	"Body length"																																	2017/1/13	2017/1/13
PRA000020	SAA000772	ST008	7962	es-BANK	"EF15386 "	CF13	"Cyprinus carpio"	"Common carp"	2013	8	8					Asia	Japan	Ehime	32.88472222	34.30166667	132.0125	133.6930556	Male	Plasma			1600	g	42.5	cm	"Body length"																																	2017/1/13	2017/1/13
PRA000020	SAA000773	ST008	7962	es-BANK	"EF15387 "	CF14	"Cyprinus carpio"	"Common carp"	2013	12	3					Asia	Japan	Ehime	32.88472222	34.30166667	132.0125	133.6930556	Female	Plasma			2550	g	49	cm	"Body length"																																	2017/1/13	2017/1/13
PRA000020	SAA000774	ST008	7962	es-BANK	"EF15388 "	CF15	"Cyprinus carpio"	"Common carp"	2013	12	3					Asia	Japan	Ehime	32.88472222	34.30166667	132.0125	133.6930556	Female	Plasma			3100	g	51	cm	"Body length"																																	2017/1/13	2017/1/13
PRA000020	SAA000775	ST008	7962	es-BANK	"EF15389 "	CF16	"Cyprinus carpio"	"Common carp"	2013	12	3					Asia	Japan	Ehime	32.88472222	34.30166667	132.0125	133.6930556	Female	Plasma			4150	g	55	cm	"Body length"																																	2017/1/13	2017/1/13
PRA000020	SAA000776	ST008	7962	es-BANK	"EF15390 "	CF17	"Cyprinus carpio"	"Common carp"	2013	12	3					Asia	Japan	Ehime	32.88472222	34.30166667	132.0125	133.6930556	Female	Plasma			3050	g	54	cm	"Body length"																																	2017/1/13	2017/1/13
PRA000020	SAA000777	ST008	7962	es-BANK	"EF15391 "	CF18	"Cyprinus carpio"	"Common carp"	2013	12	3					Asia	Japan	Ehime	32.88472222	34.30166667	132.0125	133.6930556	Female	Plasma			700	g	30	cm	"Body length"																																	2017/1/13	2017/1/13
PRA000020	SAA000778	ST008	7962	es-BANK	EF15392	CF19	"Cyprinus carpio"	"Common carp"	2014	4	23					Asia	Japan	Ehime	32.88472222	34.30166667	132.0125	133.6930556	Male	Plasma			2450	g	51.5	cm	"Body length"																																	2017/1/13	2017/1/13
PRA000020	SAA000779	ST008	217509	es-BANK	EF15393	CF20	"Carassius carassius"	"Crucian carp"	2014	4	23					Asia	Japan	Ehime	32.88472222	34.30166667	132.0125	133.6930556	Female	Plasma			850	g	29.5	cm	"Body length"																																	2017/1/13	2017/1/13
PRA000020	SAA000780	ST008	217509	es-BANK	"EF15394 "	CF21	"Carassius carassius"	"Crucian carp"	2014	4	23					Asia	Japan	Ehime	32.88472222	34.30166667	132.0125	133.6930556	Female	Plasma			650	g	26	cm	"Body length"																																	2017/1/13	2017/1/13
PRA000020	SAA000781	ST008	7962	es-BANK	"EF15395 "	CF22	"Cyprinus carpio"	"Common carp"	2014	4	23					Asia	Japan	Ehime	32.88472222	34.30166667	132.0125	133.6930556	Female	Plasma			1450	g	38	cm	"Body length"																																	2017/1/13	2017/1/13
PRA000020	SAA000782	ST008	7962	es-BANK	"EF15396 "	CF23	"Cyprinus carpio"	"Common carp"	2014	4	23					Asia	Japan	Ehime	32.88472222	34.30166667	132.0125	133.6930556	Female	Plasma			1700	g	40.5	cm	"Body length"																																	2017/1/13	2017/1/13
PRA000020	SAA000783	ST008	7962	es-BANK	"EF15397 "	CF24	"Cyprinus carpio"	"Common carp"	2014	4	23					Asia	Japan	Ehime	32.88472222	34.30166667	132.0125	133.6930556	Female	Plasma			2750	g	49	cm	"Body length"																																	2017/1/13	2017/1/13
PRA000020	SAA000784	ST008	217509	es-BANK	"EF15380 "	CF7	"Carassius carassius"	"Crucian carp"	2013	8	8					Asia	Japan	Ehime	32.88472222	34.30166667	132.0125	133.6930556	Female	Brain			640	g	27.5	cm	"Body length"																																	2017/1/13	2017/1/13
PRA000020	SAA000785	ST008	217509	es-BANK	"EF15381 "	CF8	"Carassius carassius"	"Crucian carp"	2013	8	8					Asia	Japan	Ehime	32.88472222	34.30166667	132.0125	133.6930556	Female	Brain			590	g	27	cm	"Body length"																																	2017/1/13	2017/1/13
PRA000020	SAA000786	ST008	217509	es-BANK	"EF15382 "	CF9	"Carassius carassius"	"Crucian carp"	2013	8	8					Asia	Japan	Ehime	32.88472222	34.30166667	132.0125	133.6930556	Female	Brain			800	g	29	cm	"Body length"																																	2017/1/13	2017/1/13
PRA000020	SAA000787	ST008	217509	es-BANK	"EF15383 "	CF10	"Carassius carassius"	"Crucian carp"	2013	8	8					Asia	Japan	Ehime	32.88472222	34.30166667	132.0125	133.6930556	Female	Brain			710	g	26.5	cm	"Body length"																																	2017/1/13	2017/1/13
PRA000020	SAA000788	ST008	217509	es-BANK	"EF15384 "	CF11	"Carassius carassius"	"Crucian carp"	2013	8	8					Asia	Japan	Ehime	32.88472222	34.30166667	132.0125	133.6930556	unknown	Brain			150	g	16.5	cm	"Body length"																																	2017/1/13	2017/1/13
PRA000020	SAA000789	ST008	7962	es-BANK	"EF15385 "	CF12	"Cyprinus carpio"	"Common carp"	2013	8	8					Asia	Japan	Ehime	32.88472222	34.30166667	132.0125	133.6930556	unknown	Brain			270	g	22	cm	"Body length"																																	2017/1/13	2017/1/13
PRA000020	SAA000790	ST008	7962	es-BANK	"EF15386 "	CF13	"Cyprinus carpio"	"Common carp"	2013	8	8					Asia	Japan	Ehime	32.88472222	34.30166667	132.0125	133.6930556	Male	Brain			1600	g	42.5	cm	"Body length"																																	2017/1/13	2017/1/13
PRA000020	SAA000791	ST008	7962	es-BANK	"EF15387 "	CF14	"Cyprinus carpio"	"Common carp"	2013	12	3					Asia	Japan	Ehime	32.88472222	34.30166667	132.0125	133.6930556	Female	Brain			2550	g	49	cm	"Body length"																																	2017/1/13	2017/1/13
PRA000020	SAA000792	ST008	7962	es-BANK	"EF15388 "	CF15	"Cyprinus carpio"	"Common carp"	2013	12	3					Asia	Japan	Ehime	32.88472222	34.30166667	132.0125	133.6930556	Female	Brain			3100	g	51	cm	"Body length"																																	2017/1/13	2017/1/13
PRA000020	SAA000793	ST008	7962	es-BANK	"EF15389 "	CF16	"Cyprinus carpio"	"Common carp"	2013	12	3					Asia	Japan	Ehime	32.88472222	34.30166667	132.0125	133.6930556	Female	Brain			4150	g	55	cm	"Body length"																																	2017/1/13	2017/1/13
PRA000020	SAA000794	ST008	7962	es-BANK	"EF15390 "	CF17	"Cyprinus carpio"	"Common carp"	2013	12	3					Asia	Japan	Ehime	32.88472222	34.30166667	132.0125	133.6930556	Female	Brain			3050	g	54	cm	"Body length"																																	2017/1/13	2017/1/13
PRA000020	SAA000795	ST008	7962	es-BANK	"EF15391 "	CF18	"Cyprinus carpio"	"Common carp"	2013	12	3					Asia	Japan	Ehime	32.88472222	34.30166667	132.0125	133.6930556	Female	Brain			700	g	30	cm	"Body length"																																	2017/1/13	2017/1/13
PRA000020	SAA000796	ST008	7962	es-BANK	EF15392	CF19	"Cyprinus carpio"	"Common carp"	2014	4	23					Asia	Japan	Ehime	32.88472222	34.30166667	132.0125	133.6930556	Male	Brain			2450	g	51.5	cm	"Body length"																																	2017/1/13	2017/1/13
PRA000020	SAA000797	ST008	217509	es-BANK	EF15393	CF20	"Carassius carassius"	"Crucian carp"	2014	4	23					Asia	Japan	Ehime	32.88472222	34.30166667	132.0125	133.6930556	Female	Brain			850	g	29.5	cm	"Body length"																																	2017/1/13	2017/1/13
PRA000020	SAA000798	ST008	217509	es-BANK	"EF15394 "	CF21	"Carassius carassius"	"Crucian carp"	2014	4	23					Asia	Japan	Ehime	32.88472222	34.30166667	132.0125	133.6930556	Female	Brain			650	g	26	cm	"Body length"																																	2017/1/13	2017/1/13
PRA000020	SAA000799	ST008	7962	es-BANK	"EF15395 "	CF22	"Cyprinus carpio"	"Common carp"	2014	4	23					Asia	Japan	Ehime	32.88472222	34.30166667	132.0125	133.6930556	Female	Brain			1450	g	38	cm	"Body length"																																	2017/1/13	2017/1/13
PRA000020	SAA000800	ST008	7962	es-BANK	"EF15396 "	CF23	"Cyprinus carpio"	"Common carp"	2014	4	23					Asia	Japan	Ehime	32.88472222	34.30166667	132.0125	133.6930556	Female	Brain			1700	g	40.5	cm	"Body length"																																	2017/1/13	2017/1/13
PRA000020	SAA000801	ST008	7962	es-BANK	"EF15397 "	CF24	"Cyprinus carpio"	"Common carp"	2014	4	23					Asia	Japan	Ehime	32.88472222	34.30166667	132.0125	133.6930556	Female	Brain			2750	g	49	cm	"Body length"																																	2017/1/13	2017/1/13
PRA000020	SAA000802	ST008	217509	es-BANK	"EF15380 "	CF7	"Carassius carassius"	"Crucian carp"	2013	8	8					Asia	Japan	Ehime	32.88472222	34.30166667	132.0125	133.6930556	Female	Liver			640	g	27.5	cm	"Body length"																																	2017/1/13	2017/1/13
PRA000020	SAA000803	ST008	217509	es-BANK	"EF15381 "	CF8	"Carassius carassius"	"Crucian carp"	2013	8	8					Asia	Japan	Ehime	32.88472222	34.30166667	132.0125	133.6930556	Female	Liver			590	g	27	cm	"Body length"																																	2017/1/13	2017/1/13
PRA000020	SAA000804	ST008	217509	es-BANK	"EF15382 "	CF9	"Carassius carassius"	"Crucian carp"	2013	8	8					Asia	Japan	Ehime	32.88472222	34.30166667	132.0125	133.6930556	Female	Liver			800	g	29	cm	"Body length"																																	2017/1/13	2017/1/13
PRA000020	SAA000805	ST008	217509	es-BANK	"EF15383 "	CF10	"Carassius carassius"	"Crucian carp"	2013	8	8					Asia	Japan	Ehime	32.88472222	34.30166667	132.0125	133.6930556	Female	Liver			710	g	26.5	cm	"Body length"																																	2017/1/13	2017/1/13
PRA000020	SAA000806	ST008	217509	es-BANK	"EF15384 "	CF11	"Carassius carassius"	"Crucian carp"	2013	8	8					Asia	Japan	Ehime	32.88472222	34.30166667	132.0125	133.6930556	unknown	Liver			150	g	16.5	cm	"Body length"																																	2017/1/13	2017/1/13
PRA000020	SAA000807	ST008	7962	es-BANK	"EF15385 "	CF12	"Cyprinus carpio"	"Common carp"	2013	8	8					Asia	Japan	Ehime	32.88472222	34.30166667	132.0125	133.6930556	unknown	Liver			270	g	22	cm	"Body length"																																	2017/1/13	2017/1/13
PRA000020	SAA000808	ST008	7962	es-BANK	"EF15386 "	CF13	"Cyprinus carpio"	"Common carp"	2013	8	8					Asia	Japan	Ehime	32.88472222	34.30166667	132.0125	133.6930556	Male	Liver			1600	g	42.5	cm	"Body length"																																	2017/1/13	2017/1/13
PRA000020	SAA000809	ST008	7962	es-BANK	"EF15387 "	CF14	"Cyprinus carpio"	"Common carp"	2013	12	3					Asia	Japan	Ehime	32.88472222	34.30166667	132.0125	133.6930556	Female	Liver			2550	g	49	cm	"Body length"																																	2017/1/13	2017/1/13
PRA000020	SAA000810	ST008	7962	es-BANK	"EF15388 "	CF15	"Cyprinus carpio"	"Common carp"	2013	12	3					Asia	Japan	Ehime	32.88472222	34.30166667	132.0125	133.6930556	Female	Liver			3100	g	51	cm	"Body length"																																	2017/1/13	2017/1/13
PRA000020	SAA000811	ST008	7962	es-BANK	"EF15389 "	CF16	"Cyprinus carpio"	"Common carp"	2013	12	3					Asia	Japan	Ehime	32.88472222	34.30166667	132.0125	133.6930556	Female	Liver			4150	g	55	cm	"Body length"																																	2017/1/13	2017/1/13
PRA000020	SAA000812	ST008	7962	es-BANK	"EF15390 "	CF17	"Cyprinus carpio"	"Common carp"	2013	12	3					Asia	Japan	Ehime	32.88472222	34.30166667	132.0125	133.6930556	Female	Liver			3050	g	54	cm	"Body length"																																	2017/1/13	2017/1/13
PRA000020	SAA000813	ST008	7962	es-BANK	"EF15391 "	CF18	"Cyprinus carpio"	"Common carp"	2013	12	3					Asia	Japan	Ehime	32.88472222	34.30166667	132.0125	133.6930556	Female	Liver			700	g	30	cm	"Body length"																																	2017/1/13	2017/1/13
PRA000020	SAA000814	ST008	7962	es-BANK	EF15392	CF19	"Cyprinus carpio"	"Common carp"	2014	4	23					Asia	Japan	Ehime	32.88472222	34.30166667	132.0125	133.6930556	Male	Liver			2450	g	51.5	cm	"Body length"																																	2017/1/13	2017/1/13
PRA000020	SAA000815	ST008	217509	es-BANK	EF15393	CF20	"Carassius carassius"	"Crucian carp"	2014	4	23					Asia	Japan	Ehime	32.88472222	34.30166667	132.0125	133.6930556	Female	Liver			850	g	29.5	cm	"Body length"																																	2017/1/13	2017/1/13
PRA000020	SAA000816	ST008	217509	es-BANK	"EF15394 "	CF21	"Carassius carassius"	"Crucian carp"	2014	4	23					Asia	Japan	Ehime	32.88472222	34.30166667	132.0125	133.6930556	Female	Liver			650	g	26	cm	"Body length"																																	2017/1/13	2017/1/13
PRA000020	SAA000817	ST008	7962	es-BANK	"EF15395 "	CF22	"Cyprinus carpio"	"Common carp"	2014	4	23					Asia	Japan	Ehime	32.88472222	34.30166667	132.0125	133.6930556	Female	Liver			1450	g	38	cm	"Body length"																																	2017/1/13	2017/1/13
PRA000020	SAA000818	ST008	7962	es-BANK	"EF15396 "	CF23	"Cyprinus carpio"	"Common carp"	2014	4	23					Asia	Japan	Ehime	32.88472222	34.30166667	132.0125	133.6930556	Female	Liver			1700	g	40.5	cm	"Body length"																																	2017/1/13	2017/1/13
PRA000020	SAA000819	ST008	7962	es-BANK	"EF15397 "	CF24	"Cyprinus carpio"	"Common carp"	2014	4	23					Asia	Japan	Ehime	32.88472222	34.30166667	132.0125	133.6930556	Female	Liver			2750	g	49	cm	"Body length"																																	2017/1/13	2017/1/13
PRA000020	SAA000820	ST008	217509	es-BANK	"EF15380 "	CF7	"Carassius carassius"	"Crucian carp"	2013	8	8					Asia	Japan	Ehime	32.88472222	34.30166667	132.0125	133.6930556	Female	Kidney			640	g	27.5	cm	"Body length"																																	2017/1/13	2017/1/13
PRA000020	SAA000821	ST008	217509	es-BANK	"EF15381 "	CF8	"Carassius carassius"	"Crucian carp"	2013	8	8					Asia	Japan	Ehime	32.88472222	34.30166667	132.0125	133.6930556	Female	Kidney			590	g	27	cm	"Body length"																																	2017/1/13	2017/1/13
PRA000020	SAA000822	ST008	217509	es-BANK	"EF15382 "	CF9	"Carassius carassius"	"Crucian carp"	2013	8	8					Asia	Japan	Ehime	32.88472222	34.30166667	132.0125	133.6930556	Female	Kidney			800	g	29	cm	"Body length"																																	2017/1/13	2017/1/13
PRA000020	SAA000823	ST008	217509	es-BANK	"EF15383 "	CF10	"Carassius carassius"	"Crucian carp"	2013	8	8					Asia	Japan	Ehime	32.88472222	34.30166667	132.0125	133.6930556	Female	Kidney			710	g	26.5	cm	"Body length"																																	2017/1/13	2017/1/13
PRA000020	SAA000824	ST008	217509	es-BANK	"EF15384 "	CF11	"Carassius carassius"	"Crucian carp"	2013	8	8					Asia	Japan	Ehime	32.88472222	34.30166667	132.0125	133.6930556	unknown	Kidney			150	g	16.5	cm	"Body length"																																	2017/1/13	2017/1/13
PRA000020	SAA000825	ST008	7962	es-BANK	"EF15385 "	CF12	"Cyprinus carpio"	"Common carp"	2013	8	8					Asia	Japan	Ehime	32.88472222	34.30166667	132.0125	133.6930556	unknown	Kidney			270	g	22	cm	"Body length"																																	2017/1/13	2017/1/13
PRA000020	SAA000826	ST008	7962	es-BANK	"EF15386 "	CF13	"Cyprinus carpio"	"Common carp"	2013	8	8					Asia	Japan	Ehime	32.88472222	34.30166667	132.0125	133.6930556	Male	Kidney			1600	g	42.5	cm	"Body length"																																	2017/1/13	2017/1/13
PRA000020	SAA000827	ST008	7962	es-BANK	"EF15387 "	CF14	"Cyprinus carpio"	"Common carp"	2013	12	3					Asia	Japan	Ehime	32.88472222	34.30166667	132.0125	133.6930556	Female	Kidney			2550	g	49	cm	"Body length"																																	2017/1/13	2017/1/13
PRA000020	SAA000828	ST008	7962	es-BANK	"EF15388 "	CF15	"Cyprinus carpio"	"Common carp"	2013	12	3					Asia	Japan	Ehime	32.88472222	34.30166667	132.0125	133.6930556	Female	Kidney			3100	g	51	cm	"Body length"																																	2017/1/13	2017/1/13
PRA000020	SAA000829	ST008	7962	es-BANK	"EF15389 "	CF16	"Cyprinus carpio"	"Common carp"	2013	12	3					Asia	Japan	Ehime	32.88472222	34.30166667	132.0125	133.6930556	Female	Kidney			4150	g	55	cm	"Body length"																																	2017/1/13	2017/1/13
PRA000020	SAA000830	ST008	7962	es-BANK	"EF15390 "	CF17	"Cyprinus carpio"	"Common carp"	2013	12	3					Asia	Japan	Ehime	32.88472222	34.30166667	132.0125	133.6930556	Female	Kidney			3050	g	54	cm	"Body length"																																	2017/1/13	2017/1/13
PRA000020	SAA000831	ST008	7962	es-BANK	"EF15391 "	CF18	"Cyprinus carpio"	"Common carp"	2013	12	3					Asia	Japan	Ehime	32.88472222	34.30166667	132.0125	133.6930556	Female	Kidney			700	g	30	cm	"Body length"																																	2017/1/13	2017/1/13
PRA000020	SAA000832	ST008	7962	es-BANK	EF15392	CF19	"Cyprinus carpio"	"Common carp"	2014	4	23					Asia	Japan	Ehime	32.88472222	34.30166667	132.0125	133.6930556	Male	Kidney			2450	g	51.5	cm	"Body length"																																	2017/1/13	2017/1/13
PRA000020	SAA000833	ST008	217509	es-BANK	EF15393	CF20	"Carassius carassius"	"Crucian carp"	2014	4	23					Asia	Japan	Ehime	32.88472222	34.30166667	132.0125	133.6930556	Female	Kidney			850	g	29.5	cm	"Body length"																																	2017/1/13	2017/1/13
PRA000020	SAA000834	ST008	217509	es-BANK	"EF15394 "	CF21	"Carassius carassius"	"Crucian carp"	2014	4	23					Asia	Japan	Ehime	32.88472222	34.30166667	132.0125	133.6930556	Female	Kidney			650	g	26	cm	"Body length"																																	2017/1/13	2017/1/13
PRA000020	SAA000835	ST008	7962	es-BANK	"EF15395 "	CF22	"Cyprinus carpio"	"Common carp"	2014	4	23					Asia	Japan	Ehime	32.88472222	34.30166667	132.0125	133.6930556	Female	Kidney			1450	g	38	cm	"Body length"																																	2017/1/13	2017/1/13
PRA000020	SAA000836	ST008	7962	es-BANK	"EF15396 "	CF23	"Cyprinus carpio"	"Common carp"	2014	4	23					Asia	Japan	Ehime	32.88472222	34.30166667	132.0125	133.6930556	Female	Kidney			1700	g	40.5	cm	"Body length"																																	2017/1/13	2017/1/13
PRA000020	SAA000837	ST008	7962	es-BANK	"EF15397 "	CF24	"Cyprinus carpio"	"Common carp"	2014	4	23					Asia	Japan	Ehime	32.88472222	34.30166667	132.0125	133.6930556	Female	Kidney			2750	g	49	cm	"Body length"																																	2017/1/13	2017/1/13
PRA000020	SAA000838	ST008	217509	es-BANK	"EF15380 "	CF7	"Carassius carassius"	"Crucian carp"	2013	8	8					Asia	Japan	Ehime	32.88472222	34.30166667	132.0125	133.6930556	Female	Muscle			640	g	27.5	cm	"Body length"																																	2017/1/13	2017/1/13
PRA000020	SAA000839	ST008	217509	es-BANK	"EF15381 "	CF8	"Carassius carassius"	"Crucian carp"	2013	8	8					Asia	Japan	Ehime	32.88472222	34.30166667	132.0125	133.6930556	Female	Muscle			590	g	27	cm	"Body length"																																	2017/1/13	2017/1/13
PRA000020	SAA000840	ST008	217509	es-BANK	"EF15382 "	CF9	"Carassius carassius"	"Crucian carp"	2013	8	8					Asia	Japan	Ehime	32.88472222	34.30166667	132.0125	133.6930556	Female	Muscle			800	g	29	cm	"Body length"																																	2017/1/13	2017/1/13
PRA000020	SAA000841	ST008	217509	es-BANK	"EF15383 "	CF10	"Carassius carassius"	"Crucian carp"	2013	8	8					Asia	Japan	Ehime	32.88472222	34.30166667	132.0125	133.6930556	Female	Muscle			710	g	26.5	cm	"Body length"																																	2017/1/13	2017/1/13
PRA000020	SAA000842	ST008	217509	es-BANK	"EF15384 "	CF11	"Carassius carassius"	"Crucian carp"	2013	8	8					Asia	Japan	Ehime	32.88472222	34.30166667	132.0125	133.6930556	unknown	Muscle			150	g	16.5	cm	"Body length"																																	2017/1/13	2017/1/13
PRA000020	SAA000843	ST008	7962	es-BANK	"EF15385 "	CF12	"Cyprinus carpio"	"Common carp"	2013	8	8					Asia	Japan	Ehime	32.88472222	34.30166667	132.0125	133.6930556	unknown	Muscle			270	g	22	cm	"Body length"																																	2017/1/13	2017/1/13
PRA000020	SAA000844	ST008	7962	es-BANK	"EF15386 "	CF13	"Cyprinus carpio"	"Common carp"	2013	8	8					Asia	Japan	Ehime	32.88472222	34.30166667	132.0125	133.6930556	Male	Muscle			1600	g	42.5	cm	"Body length"																																	2017/1/13	2017/1/13
PRA000020	SAA000845	ST008	7962	es-BANK	"EF15387 "	CF14	"Cyprinus carpio"	"Common carp"	2013	12	3					Asia	Japan	Ehime	32.88472222	34.30166667	132.0125	133.6930556	Female	Muscle			2550	g	49	cm	"Body length"																																	2017/1/13	2017/1/13
PRA000020	SAA000846	ST008	7962	es-BANK	"EF15388 "	CF15	"Cyprinus carpio"	"Common carp"	2013	12	3					Asia	Japan	Ehime	32.88472222	34.30166667	132.0125	133.6930556	Female	Muscle			3100	g	51	cm	"Body length"																																	2017/1/13	2017/1/13
PRA000020	SAA000847	ST008	7962	es-BANK	"EF15389 "	CF16	"Cyprinus carpio"	"Common carp"	2013	12	3					Asia	Japan	Ehime	32.88472222	34.30166667	132.0125	133.6930556	Female	Muscle			4150	g	55	cm	"Body length"																																	2017/1/13	2017/1/13
PRA000020	SAA000848	ST008	7962	es-BANK	"EF15390 "	CF17	"Cyprinus carpio"	"Common carp"	2013	12	3					Asia	Japan	Ehime	32.88472222	34.30166667	132.0125	133.6930556	Female	Muscle			3050	g	54	cm	"Body length"																																	2017/1/13	2017/1/13
PRA000020	SAA000849	ST008	7962	es-BANK	"EF15391 "	CF18	"Cyprinus carpio"	"Common carp"	2013	12	3					Asia	Japan	Ehime	32.88472222	34.30166667	132.0125	133.6930556	Female	Muscle			700	g	30	cm	"Body length"																																	2017/1/13	2017/1/13
PRA000020	SAA000850	ST008	7962	es-BANK	EF15392	CF19	"Cyprinus carpio"	"Common carp"	2014	4	23					Asia	Japan	Ehime	32.88472222	34.30166667	132.0125	133.6930556	Male	Muscle			2450	g	51.5	cm	"Body length"																																	2017/1/13	2017/1/13
PRA000020	SAA000851	ST008	217509	es-BANK	EF15393	CF20	"Carassius carassius"	"Crucian carp"	2014	4	23					Asia	Japan	Ehime	32.88472222	34.30166667	132.0125	133.6930556	Female	Muscle			850	g	29.5	cm	"Body length"																																	2017/1/13	2017/1/13
PRA000020	SAA000852	ST008	217509	es-BANK	"EF15394 "	CF21	"Carassius carassius"	"Crucian carp"	2014	4	23					Asia	Japan	Ehime	32.88472222	34.30166667	132.0125	133.6930556	Female	Muscle			650	g	26	cm	"Body length"																																	2017/1/13	2017/1/13
PRA000020	SAA000853	ST008	7962	es-BANK	"EF15395 "	CF22	"Cyprinus carpio"	"Common carp"	2014	4	23					Asia	Japan	Ehime	32.88472222	34.30166667	132.0125	133.6930556	Female	Muscle			1450	g	38	cm	"Body length"																																	2017/1/13	2017/1/13
PRA000020	SAA000854	ST008	7962	es-BANK	"EF15396 "	CF23	"Cyprinus carpio"	"Common carp"	2014	4	23					Asia	Japan	Ehime	32.88472222	34.30166667	132.0125	133.6930556	Female	Muscle			1700	g	40.5	cm	"Body length"																																	2017/1/13	2017/1/13
PRA000020	SAA000855	ST008	7962	es-BANK	"EF15397 "	CF24	"Cyprinus carpio"	"Common carp"	2014	4	23					Asia	Japan	Ehime	32.88472222	34.30166667	132.0125	133.6930556	Female	Muscle			2750	g	49	cm	"Body length"																																	2017/1/13	2017/1/13
PRA000020	SAA000856	ST008	217509	es-BANK	"EF15380 "	CF7	"Carassius carassius"	"Crucian carp"	2013	8	8					Asia	Japan	Ehime	32.88472222	34.30166667	132.0125	133.6930556	Female	Gills			640	g	27.5	cm	"Body length"																																	2017/1/13	2017/1/13
PRA000020	SAA000857	ST008	217509	es-BANK	"EF15381 "	CF8	"Carassius carassius"	"Crucian carp"	2013	8	8					Asia	Japan	Ehime	32.88472222	34.30166667	132.0125	133.6930556	Female	Gills			590	g	27	cm	"Body length"																																	2017/1/13	2017/1/13
PRA000020	SAA000858	ST008	217509	es-BANK	"EF15382 "	CF9	"Carassius carassius"	"Crucian carp"	2013	8	8					Asia	Japan	Ehime	32.88472222	34.30166667	132.0125	133.6930556	Female	Gills			800	g	29	cm	"Body length"																																	2017/1/13	2017/1/13
PRA000020	SAA000859	ST008	217509	es-BANK	"EF15383 "	CF10	"Carassius carassius"	"Crucian carp"	2013	8	8					Asia	Japan	Ehime	32.88472222	34.30166667	132.0125	133.6930556	Female	Gills			710	g	26.5	cm	"Body length"																																	2017/1/13	2017/1/13
PRA000020	SAA000860	ST008	217509	es-BANK	"EF15384 "	CF11	"Carassius carassius"	"Crucian carp"	2013	8	8					Asia	Japan	Ehime	32.88472222	34.30166667	132.0125	133.6930556	unknown	Gills			150	g	16.5	cm	"Body length"																																	2017/1/13	2017/1/13
PRA000020	SAA000861	ST008	7962	es-BANK	"EF15385 "	CF12	"Cyprinus carpio"	"Common carp"	2013	8	8					Asia	Japan	Ehime	32.88472222	34.30166667	132.0125	133.6930556	unknown	Gills			270	g	22	cm	"Body length"																																	2017/1/13	2017/1/13
PRA000020	SAA000862	ST008	7962	es-BANK	"EF15386 "	CF13	"Cyprinus carpio"	"Common carp"	2013	8	8					Asia	Japan	Ehime	32.88472222	34.30166667	132.0125	133.6930556	Male	Gills			1600	g	42.5	cm	"Body length"																																	2017/1/13	2017/1/13
PRA000020	SAA000863	ST008	7962	es-BANK	"EF15387 "	CF14	"Cyprinus carpio"	"Common carp"	2013	12	3					Asia	Japan	Ehime	32.88472222	34.30166667	132.0125	133.6930556	Female	Gills			2550	g	49	cm	"Body length"																																	2017/1/13	2017/1/13
PRA000020	SAA000864	ST008	7962	es-BANK	"EF15388 "	CF15	"Cyprinus carpio"	"Common carp"	2013	12	3					Asia	Japan	Ehime	32.88472222	34.30166667	132.0125	133.6930556	Female	Gills			3100	g	51	cm	"Body length"																																	2017/1/13	2017/1/13
PRA000020	SAA000865	ST008	7962	es-BANK	"EF15389 "	CF16	"Cyprinus carpio"	"Common carp"	2013	12	3					Asia	Japan	Ehime	32.88472222	34.30166667	132.0125	133.6930556	Female	Gills			4150	g	55	cm	"Body length"																																	2017/1/13	2017/1/13
PRA000020	SAA000866	ST008	7962	es-BANK	"EF15390 "	CF17	"Cyprinus carpio"	"Common carp"	2013	12	3					Asia	Japan	Ehime	32.88472222	34.30166667	132.0125	133.6930556	Female	Gills			3050	g	54	cm	"Body length"																																	2017/1/13	2017/1/13
PRA000020	SAA000867	ST008	7962	es-BANK	"EF15391 "	CF18	"Cyprinus carpio"	"Common carp"	2013	12	3					Asia	Japan	Ehime	32.88472222	34.30166667	132.0125	133.6930556	Female	Gills			700	g	30	cm	"Body length"																																	2017/1/13	2017/1/13
PRA000020	SAA000868	ST008	7962	es-BANK	EF15392	CF19	"Cyprinus carpio"	"Common carp"	2014	4	23					Asia	Japan	Ehime	32.88472222	34.30166667	132.0125	133.6930556	Male	Gills			2450	g	51.5	cm	"Body length"																																	2017/1/13	2017/1/13
PRA000020	SAA000869	ST008	217509	es-BANK	EF15393	CF20	"Carassius carassius"	"Crucian carp"	2014	4	23					Asia	Japan	Ehime	32.88472222	34.30166667	132.0125	133.6930556	Female	Gills			850	g	29.5	cm	"Body length"																																	2017/1/13	2017/1/13
PRA000020	SAA000870	ST008	217509	es-BANK	"EF15394 "	CF21	"Carassius carassius"	"Crucian carp"	2014	4	23					Asia	Japan	Ehime	32.88472222	34.30166667	132.0125	133.6930556	Female	Gills			650	g	26	cm	"Body length"																																	2017/1/13	2017/1/13
PRA000020	SAA000871	ST008	7962	es-BANK	"EF15395 "	CF22	"Cyprinus carpio"	"Common carp"	2014	4	23					Asia	Japan	Ehime	32.88472222	34.30166667	132.0125	133.6930556	Female	Gills			1450	g	38	cm	"Body length"																																	2017/1/13	2017/1/13
PRA000020	SAA000872	ST008	7962	es-BANK	"EF15396 "	CF23	"Cyprinus carpio"	"Common carp"	2014	4	23					Asia	Japan	Ehime	32.88472222	34.30166667	132.0125	133.6930556	Female	Gills			1700	g	40.5	cm	"Body length"																																	2017/1/13	2017/1/13
PRA000020	SAA000873	ST008	7962	es-BANK	"EF15397 "	CF24	"Cyprinus carpio"	"Common carp"	2014	4	23					Asia	Japan	Ehime	32.88472222	34.30166667	132.0125	133.6930556	Female	Gills			2750	g	49	cm	"Body length"																																	2017/1/13	2017/1/13
PRA000020	SAA000874	ST015				WK1	Water	"Ambient water from effluent-dominated streams"	2011	11	2					Asia	Japan	Kumamoto	32.09472222	33.19527778	129.9402778	131.3294444																																									"n=3; At 6-h intervals"	2017/1/13	2017/1/13
PRA000020	SAA000875	ST015				WE1	Water	"Ambient water from effluent-dominated streams"	2013	8	8					Asia	Japan	Ehime	32.88472222	34.30166667	132.0125	133.6930556																																									"n=5; At 6-h intervals"	2017/1/13	2017/1/13
PRA000020	SAA000876	ST015				WE2	Water	"Ambient water from effluent-dominated streams"	2013	12	3					Asia	Japan	Ehime	32.88472222	34.30166667	132.0125	133.6930556																																									"n=4; At 6-h intervals"	2017/1/13	2017/1/13
PRA000020	SAA000877	ST015				WE3	Water	"Ambient water from effluent-dominated streams"	2014	4	23					Asia	Japan	Ehime	32.88472222	34.30166667	132.0125	133.6930556																																									"n=4; At 6-h intervals"	2017/1/13	2017/1/13
PRA000020	SAA000878	ST015				WE4	Water	"Ambient water from effluent-dominated streams"	2014	8	18					Asia	Japan	Ehime	32.88472222	34.30166667	132.0125	133.6930556																																									n=1	2017/1/13	2017/1/13
PRA000020	SAA000879	ST010				P1	Plant	Periphytons	2014	8	18					Asia	Japan	Ehime	32.88472222	34.30166667	132.0125	133.6930556																																									"Periphyton communities on rocks collected from the same site as the collection site of fish and water."	2017/1/13	2017/1/13
PRA000100	SAA006971	ST015				OsakaCity07_2018Summer_AM	Water	"River water"	2018	7	24		AM		Fair	Asia	Japan	"Juhachijou-ohashi bridge, Kanzaki-gawa Riv., Osaka city"	34.748986		135.49703														33.7	30.32	7.38		32.5																									2020/06/22	2020/06/22
PRA000100	SAA006972	ST015				OsakaCity07_2018Summer_PM	Water	"River water"	2018	7	24		PM		Fair	Asia	Japan	"Juhachijou-ohashi bridge, Kanzaki-gawa Riv., Osaka city"	34.748986		135.49703														36.6	32.05	7.44		47.4																									2020/06/22	2020/06/22
PRA000100	SAA006973	ST015				OsakaCity08_2018Summer_AM	Water	"River water"	2018	7	24		AM		Fair	Asia	Japan	"Enoki bridge, Kanzaki-gawa Riv., Osaka city"	34.7513		135.492125														33.4	30.68	7.25		35.3																									2020/06/22	2020/06/22
PRA000100	SAA006974	ST015				OsakaCity08_2018Summer_PM	Water	"River water"	2018	7	24		PM		Fair	Asia	Japan	"Enoki bridge, Kanzaki-gawa Riv., Osaka city"	34.7513		135.492125														36.6	32.04	7.3		34.5																									2020/06/22	2020/06/22
PRA000100	SAA006975	ST015				OsakaCity09_2018Summer_AM	Water	"River water"	2018	7	24		AM		Fair	Asia	Japan	"Upstream of Ochiai wharf (Kita-tsumori side), Kizu-gawa Riv., Osaka city"	34.64405		135.479776														35.1	30.26	7.25		780																									2020/06/22	2020/06/22
PRA000100	SAA006976	ST015				OsakaCity09_2018Summer_PM	Water	"River water"	2018	7	24		PM		Fair	Asia	Japan	"Upstream of Ochiai wharf (Kita-tsumori side), Kizu-gawa Riv., Osaka city"	34.64405		135.479776														36.6	31.72	7.25		529																									2020/06/22	2020/06/22
PRA000100	SAA006977	ST015				OsakaCity10_2018Summer_AM	Water	"River water"	2018	7	24		AM		Fair	Asia	Japan	"Downstream of Ochiai wharf (Tsumori side), Kizu0gawa Riv., Osaka city"	34.64216		135.479906														34.4	29.64	6.79		1100																									2020/06/22	2020/06/22
PRA000100	SAA006978	ST015				OsakaCity10_2018Summer_PM	Water	"River water"	2018	7	24		PM		Fair	Asia	Japan	"Downstream of Ochiai wharf (Tsumori side), Kizu0gawa Riv., Osaka city"	34.64216		135.479906														37	31.1	7		804																									2020/06/22	2020/06/22
PRA000100	SAA006979	ST015				OsakaCity11_2018Summer_AM	Water	"River water"	2018	7	24		AM		Fair	Asia	Japan	"Shigino-ohashi bridge, Daini Neyagawa Riv., Osaka city"	34.688627		135.545553														33.2	29.5	6.93		54.8																									2020/06/22	2020/06/22
PRA000100	SAA006980	ST015				OsakaCity11_2018Summer_PM	Water	"River water"	2018	7	24		PM		Fair	Asia	Japan	"Shigino-ohashi bridge, Daini Neyagawa Riv., Osaka city"	34.688627		135.545553														35.5	31.67	7.02		57																									2020/06/22	2020/06/22
PRA000100	SAA006981	ST015				OsakaCity12_2018Summer_AM	Water	"River water"	2018	7	24		AM		Fair	Asia	Japan	"Shimoshiromi bridge, Daini Neyagawa Riv., Osaka city"	34.689562		135.537748														32.5	28.59	7.08		53.1																									2020/06/22	2020/06/22
PRA000100	SAA006982	ST015				OsakaCity12_2018Summer_PM	Water	"River water"	2018	7	24		PM		Fair	Asia	Japan	"Shimoshiromi bridge, Daini Neyagawa Riv., Osaka city"	34.689562		135.537748														35.9	31.4	7.03		56.5																									2020/06/22	2020/06/22
PRA000100	SAA006983	ST015				OsakaCity13_2018Summer_AM	Water	"River water"	2018	7	24		AM		Fair	Asia	Japan	"Kema Watergate, Oh-kawa Riv., Osaka City"	34.721115		135.517125														33	30.14	7.9		17																									2020/06/22	2020/06/22
PRA000100	SAA006984	ST015				OsakaCity13_2018Summer_PM	Water	"River water"	2018	7	24		PM		Fair	Asia	Japan	"Kema Watergate, Oh-kawa Riv., Osaka City"	34.721115		135.517125														36	31.64	8.2		16.7																									2020/06/22	2020/06/22
PRA000100	SAA006985	ST015				HyogoPref14_2018Summer_AM	Water	"River water"	2018	6	27		AM		Fair	Asia	Japan	"Upstream of Sewage Treatment Plant, Muko-gawa Riv., Hyogo"	34.860611		135.266559														29	25.8	7.8		23.1				>0.3																					2020/06/22	2020/06/22
PRA000100	SAA006986	ST015				HyogoPref14_2018Summer_PM	Water	"River water"	2018	6	27		PM		Fair	Asia	Japan	"Upstream of Sewage Treatment Plant, Muko-gawa Riv., Hyogo"	34.860611		135.266559														30	27.7	8.5		22.4				>0.3																					2020/06/22	2020/06/22
PRA000100	SAA006987	ST015				HyogoPref15_2018Summer_AM	Water	"River water"	2018	6	27		AM		Fair	Asia	Japan	"Downstream of Sewage Treatment Plant, Muko-gawa Riv., Hyogo"	34.862497		135.271899														30.5	26	7.5		27				>0.3																					2020/06/22	2020/06/22
PRA000100	SAA006988	ST015				HyogoPref15_2018Summer_PM	Water	"River water"	2018	6	27		PM		Fair	Asia	Japan	"Downstream of Sewage Treatment Plant, Muko-gawa Riv., Hyogo"	34.862497		135.271899														30.5	27.4	8		28.4				>0.3																					2020/06/22	2020/06/22
PRA000100	SAA006989	ST015				HyogoPref16_2018Summer_AM	Water	"River water"	2018	6	22		AM		Fair	Asia	Japan	"Inagawa bridge, Ina-gawa Riv., Hyogo"	34.769842		135.43758														29.5	21.9	8.3		15.7				>0.3																					2020/06/22	2020/06/22
PRA000100	SAA006990	ST015				HyogoPref16_2018Summer_PM	Water	"River water"	2018	6	22		PM		Fair	Asia	Japan	"Inagawa bridge, Ina-gawa Riv., Hyogo"	34.769842		135.43758														31.2	24.1	8		15.7				>0.3																					2020/06/22	2020/06/22
PRA000100	SAA006991	ST015				HyogoPref17_2018Summer_AM	Water	"River water"	2018	6	22		AM		Fair	Asia	Japan	"Tokura  bridge, Ina-gawa Riv., Hyogo"	34.761609		135.455115														28	24.4	8		39.2				>0.3																					2020/06/22	2020/06/22
PRA000100	SAA006992	ST015				HyogoPref17_2018Summer_PM	Water	"River water"	2018	6	22		PM		Fair	Asia	Japan	"Tokura  bridge, Ina-gawa Riv., Hyogo"	34.761609		135.455115														31	23.3	7.8		39.2				>0.3																					2020/06/22	2020/06/22
PRA000100	SAA006993	ST015				HyogoPref18_2018Summer_AM	Water	"River water"	2018	6	14		AM		Fair	Asia	Japan	"Banzai  bridge, Kako-gawa Riv., Hyogo"	34.822275		134.935273														22	21.3	7.4		14.61				>0.3																					2020/06/22	2020/06/22
PRA000100	SAA006994	ST015				HyogoPref18_2018Summer_PM	Water	"River water"	2018	6	14		PM		Fair	Asia	Japan	"Banzai  bridge, Kako-gawa Riv., Hyogo"	34.822275		134.935273														29.2	23.3	7.1		15.95				>0.3																					2020/06/22	2020/06/22
PRA000100	SAA006995	ST015				HyogoPref19_2018Summer_AM	Water	"River water"	2018	6	14		AM		Fair	Asia	Japan	"Leftshore of Kamisho Bridge, Kako-gawa Riv., Hyogo"	34.796573		134.900129														23	21.6	7.2		15.63				>0.3																					2020/06/22	2020/06/22
PRA000100	SAA006996	ST015				HyogoPref19_2018Summer_PM	Water	"River water"	2018	6	14		PM		Fair	Asia	Japan	"Leftshore of Kamisho Bridge, Kako-gawa Riv., Hyogo"	34.796573		134.900129														25.5	23.2	7.1		14.81				>0.3																					2020/06/22	2020/06/22
PRA000100	SAA006997	ST015				HyogoPref20_2018Summer_AM	Water	"River water"	2018	6	14		AM		Fair	Asia	Japan	"Rightshore of Kamisho Bridge, Kako-gawa Riv., Hyogo"	34.797826		134.899419														23	21.5	7.1		8.52				>0.3																					2020/06/22	2020/06/22
PRA000100	SAA006998	ST015				HyogoPref20_2018Summer_PM	Water	"River water"	2018	6	14		PM		Fair	Asia	Japan	"Rightshore of Kamisho Bridge, Kako-gawa Riv., Hyogo"	34.797826		134.899419														25.5	22.6	7		15.45				>0.3																					2020/06/22	2020/06/22
PRA000100	SAA006999	ST015				HyogoPref21_2018Summer_AM	Water	"River water"	2018	6	14		AM		Fair	Asia	Japan	"Kakogawa  Bridge, Kako-gawa Riv., Hyogo"	34.772654		134.828232														25.8	22.7	7		14.48				>0.3																					2020/06/22	2020/06/22
PRA000100	SAA007000	ST015				HyogoPref21_2018Summer_PM	Water	"River water"	2018	6	14		PM		Fair	Asia	Japan	"Kakogawa  Bridge, Kako-gawa Riv., Hyogo"	34.772654		134.828232														26.8	23.7	7		14.7				>0.3																					2020/06/22	2020/06/22
PRA000100	SAA007001	ST015				NagoyaCity22_2018Summer_AM	Water	"River water"	2018	8	10		AM		Fair	Asia	Japan	"Chuji bridge, Yamazaki-gawa Riv., Nagoya city, Aichi"	35.10286		136.920674																																											2020/06/22	2020/06/22
PRA000100	SAA007002	ST015				NagoyaCity22_2018Summer_PM	Water	"River water"	2018	8	10		PM		Fair	Asia	Japan	"Chuji bridge, Yamazaki-gawa Riv., Nagoya city, Aichi"	35.10286		136.920674														35	32.8	7.99																											2020/06/22	2020/06/22
PRA000100	SAA007003	ST015				NagoyaCity23_2018Summer_AM	Water	"River water"	2018	8	10		AM		Fair	Asia	Japan	"Hosei bridge, Yamazaki-gawa Riv., Nagoya city, Aichi"	35.097963		136.919463																																											2020/06/22	2020/06/22
PRA000100	SAA007004	ST015				NagoyaCity23_2018Summer_PM	Water	"River water"	2018	8	10		PM		Fair	Asia	Japan	"Hosei bridge, Yamazaki-gawa Riv., Nagoya city, Aichi"	35.097963		136.919463														35.1	33	8.31																											2020/06/22	2020/06/22
PRA000100	SAA007005	ST015				NagoyaCity24_2018Summer_AM	Water	"River water"	2018	8	10		AM		Fair	Asia	Japan	"Johoku bridge, Hori-kawa Riv., Nagoya city, Aichi"	35.192455		136.903276																																											2020/06/22	2020/06/22
PRA000100	SAA007006	ST015				NagoyaCity24_2018Summer_PM	Water	"River water"	2018	8	10		PM		Fair	Asia	Japan	"Johoku bridge, Hori-kawa Riv., Nagoya city, Aichi"	35.192455		136.903276														37	30.8	7.06																											2020/06/22	2020/06/22
PRA000100	SAA007007	ST015				NagoyaCity25_2018Summer_AM	Water	"River water"	2018	8	10		AM		Fair	Asia	Japan	"Nakatsuchito bridge, Hori-kawa Riv., Nagoya city, Aichi"	35.190792		136.899916																																											2020/06/22	2020/06/22
PRA000100	SAA007008	ST015				NagoyaCity25_2018Summer_PM	Water	"River water"	2018	8	10		PM		Fair	Asia	Japan	"Nakatsuchito bridge, Hori-kawa Riv., Nagoya city, Aichi"	35.190792		136.899916														35.6	29.5	7.01																											2020/06/22	2020/06/22
PRA000100	SAA007009	ST015				NagoyaCity26_2018Summer_AM	Water	"River water"	2018	8	10		AM		Fair	Asia	Japan	"Ooseko bridge, Hori-kawa Riv., Nagoya city, Aichi"	35.119784		136.903238																																											2020/06/22	2020/06/22
PRA000100	SAA007010	ST015				NagoyaCity26_2018Summer_PM	Water	"River water"	2018	8	10		PM		Fair	Asia	Japan	"Ooseko bridge, Hori-kawa Riv., Nagoya city, Aichi"	35.119784		136.903238														36.2	31.3	7.29																											2020/06/22	2020/06/22
PRA000100	SAA007011	ST015				NagoyaCity27_2018Summer_AM	Water	"River water"	2018	8	10		AM		Fair	Asia	Japan	"Kizaemon bridge, Hori-kawa Riv., Nagoya city, Aichi"	35.111162		136.900416																																											2020/06/22	2020/06/22
PRA000100	SAA007012	ST015				NagoyaCity27_2018Summer_PM	Water	"River water"	2018	8	10		PM		Fair	Asia	Japan	"Kizaemon bridge, Hori-kawa Riv., Nagoya city, Aichi"	35.111162		136.900416														36.1	31.6	7.81																											2020/06/22	2020/06/22
PRA000100	SAA007013	ST015				NagoyaCity28_2018Summer_AM	Water	"River water"	2018	8	10		AM		Fair	Asia	Japan	"Maizuru bridge, Shinhori-kawa Riv., Nagoya city, Aichi"	35.159524		136.91																																											2020/06/22	2020/06/22
PRA000100	SAA007014	ST015				NagoyaCity28_2018Summer_PM	Water	"River water"	2018	8	10		PM		Fair	Asia	Japan	"Maizuru bridge, Shinhori-kawa Riv., Nagoya city, Aichi"	35.159524		136.91														36	29.4	7.06																											2020/06/22	2020/06/22
PRA000100	SAA007015	ST015				Tokyo29_2018Summer_AM	Water	"River water"	2018	7	19		AM		Fair	Asia	Japan	"Nagata bridge, Tama-gawa Riv., Tokyo"	35.739004		139.318815														32.8	23.6																												2020/06/22	2020/06/22
PRA000100	SAA007016	ST015				Tokyo29_2018Summer_PM	Water	"River water"	2018	7	19		PM		Fair	Asia	Japan	"Nagata bridge, Tama-gawa Riv., Tokyo"	35.739004		139.318815														32.4	25.2																												2020/06/22	2020/06/22
PRA000100	SAA007017	ST015				Tokyo30_2018Summer_AM	Water	"River water"	2018	7	19		AM		Cloudy	Asia	Japan	"Hino-bashi bridge, Tama-gawa Riv., Tokyo"	35.683052		139.412492														30.6	27.8																												2020/06/22	2020/06/22
PRA000100	SAA007018	ST015				Tokyo30_2018Summer_PM	Water	"River water"	2018	7	19		PM		Fair	Asia	Japan	"Hino-bashi bridge, Tama-gawa Riv., Tokyo"	35.683052		139.412492														32.4	30.4																												2020/06/22	2020/06/22
PRA000100	SAA007019	ST015				Tokyo31_2018Summer_AM	Water	"River water"	2018	7	19		AM		Cloudy	Asia	Japan	"Sekido bridge, Tama-gawa Riv., Tokyo"	35.653498		139.455179														30.7	27.1																												2020/06/22	2020/06/22
PRA000100	SAA007020	ST015				Tokyo31_2018Summer_PM	Water	"River water"	2018	7	19		PM		Fair	Asia	Japan	"Sekido bridge, Tama-gawa Riv., Tokyo"	35.653498		139.455179														34.7	30.5																												2020/06/22	2020/06/22
PRA000100	SAA007021	ST015				Tokyo32_2018Summer_AM	Water	"River water"	2018	7	19		AM		Fair	Asia	Japan	"Tamagawara-bashi bridge, Tama-gawa Riv., Tokyo"	35.643876		139.525471														34.4	28.2																												2020/06/22	2020/06/22
PRA000100	SAA007022	ST015				Tokyo32_2018Summer_PM	Water	"River water"	2018	7	19		PM		Fair	Asia	Japan	"Tamagawara-bashi bridge, Tama-gawa Riv., Tokyo"	35.643876		139.525471														33.3	29.7																												2020/06/22	2020/06/22
PRA000100	SAA007023	ST015				Tokyo33_2018Summer_AM	Water	"River water"	2018	7	19		AM		Cloudy	Asia	Japan	"Hoon-bashi bridge, Oguri-gawa Riv., Tokyo"	35.648532		139.457918														31.6	26.3																												2020/06/22	2020/06/22
PRA000100	SAA007024	ST015				Tokyo33_2018Summer_PM	Water	"River water"	2018	7	19		PM		Fair	Asia	Japan	"Hoon-bashi bridge, Oguri-gawa Riv., Tokyo"	35.648532		139.457918														34.8	31.8																												2020/06/22	2020/06/22
PRA000100	SAA007025	ST015				Tokyo34_2018Summer_AM	Water	"River water"	2018	7	19		AM		Fair	Asia	Japan	"Takahata bridge, Asa-kawa Riv., Tokyo"	35.664964		139.407388														29	25.6																												2020/06/22	2020/06/22
PRA000100	SAA007026	ST015				Tokyo34_2018Summer_PM	Water	"River water"	2018	7	19		PM		Fair	Asia	Japan	"Takahata bridge, Asa-kawa Riv., Tokyo"	35.664964		139.407388														33.6	30.8																												2020/06/22	2020/06/22
PRA000100	SAA007027	ST015				Tokyo35_2018Summer_AM	Water	"River water"	2018	9	27		AM		Rainy	Asia	Japan	"Seiryu-bashi bridge, Yanase-gawa Riv., Kiyose city, Tokyo"	35.80483		139.538193														17	19																												2020/06/22	2020/06/22
PRA000100	SAA007028	ST015				Tokyo35_2018Summer_PM	Water	"River water"	2018	9	27		PM		Rainy	Asia	Japan	"Seiryu-bashi bridge, Yanase-gawa Riv., Kiyose city, Tokyo"	35.80483		139.538193														17.5	19																												2020/06/22	2020/06/22
PRA000100	SAA007029	ST015				Tokyo36_2018Summer_AM	Water	"River water"	2018	9	27		AM		Rainy	Asia	Japan	"Sakae bridge, Yanase-gawa Riv., Shiki city, Saitama"	35.835634		139.580318														18.5	20.7																												2020/06/22	2020/06/22
PRA000100	SAA007030	ST015				Tokyo36_2018Summer_PM	Water	"River water"	2018	9	27		PM		Cloudy	Asia	Japan	"Sakae bridge, Yanase-gawa Riv., Shiki city, Saitama"	35.835634		139.580318														17	21																												2020/06/22	2020/06/22
PRA000100	SAA007031	ST015				Tokyo37_2018Summer_AM	Water	"River water"	2018	9	26		AM		Cloudy	Asia	Japan	"Ohgi-ohashi bridge, Ara-kawa Riv., Adachi Ward, Tokyo"	35.757589		139.770681														19.5	22																												2020/06/22	2020/06/22
PRA000100	SAA007032	ST015				Tokyo37_2018Summer_PM	Water	"River water"	2018	9	26		PM		Cloudy	Asia	Japan	"Ohgi-ohashi bridge, Ara-kawa Riv., Adachi Ward, Tokyo"	35.757589		139.770681														20.8	22																												2020/06/22	2020/06/22
PRA000100	SAA007033	ST015				Tokyo38_2018Summer_AM	Water	"River water"	2018	9	26		AM		Cloudy	Asia	Japan	"Horikiri bridge, Ara-kawa Riv., Tokyo"	35.745773		139.819413														21	22.3																												2020/06/22	2020/06/22
PRA000100	SAA007034	ST015				Tokyo38_2018Summer_PM	Water	"River water"	2018	9	26		PM		Cloudy	Asia	Japan	"Horikiri bridge, Ara-kawa Riv., Tokyo"	35.745773		139.819413														20	22.3																												2020/06/22	2020/06/22
PRA000100	SAA007035	ST015				Tokyo39_2018Summer_AM	Water	"River water"	2018	8	23		AM		Fair	Asia	Japan	"Odai Bridge, Sumida-gawa Riv., Tokyo"	35.754176		139.762566														34.8	28	7.2																											2020/06/22	2020/06/22
PRA000100	SAA007036	ST015				Tokyo39_2018Summer_PM	Water	"River water"	2018	8	23		PM		Fair	Asia	Japan	"Odai Bridge, Sumida-gawa Riv., Tokyo"	35.754176		139.762566														34.3	29	7.14																											2020/06/22	2020/06/22
PRA000100	SAA007037	ST015				Tokyo40_2018Summer_AM	Water	"River water"	2018	8	23		AM		Fair	Asia	Japan	"Ryogoku Bridge, Sumida Riv., Tokyo"	35.694258		139.788704														33	28.5	7.15																											2020/06/22	2020/06/22
PRA000100	SAA007038	ST015				Tokyo40_2018Summer_PM	Water	"River water"	2018	8	23		PM		Fair	Asia	Japan	"Ryogoku Bridge, Sumida Riv., Tokyo"	35.694258		139.788704														35	28	7.2																											2020/06/22	2020/06/22
PRA000100	SAA007039	ST015				Tokyo41_2018Summer_AM	Water	"River water"	2018	6	29		AM		Fair	Asia	Japan	"Shiodome bridge, Naka-gawa Riv., Saitama"	35.800727		139.85166														31	27.3	7.71																											2020/06/22	2020/06/22
PRA000100	SAA007040	ST015				Tokyo41_2018Summer_PM	Water	"River water"	2018	6	29		PM		Fair	Asia	Japan	"Shiodome bridge, Naka-gawa Riv., Saitama"	35.800727		139.85166														32.9	27.5	7.79																											2020/06/22	2020/06/22
PRA000100	SAA007041	ST015				Tokyo42_2018Summer_AM	Water	"River water"	2018	6	29		AM		Fair	Asia	Japan	"Heiwa bridge, Naka-gawa Riv., Tokyo"	35.727687		139.848471														31.8	27	7.6																											2020/06/22	2020/06/22
PRA000100	SAA007042	ST015				Tokyo42_2018Summer_PM	Water	"River water"	2018	6	29		PM		Fair	Asia	Japan	"Heiwa bridge, Naka-gawa Riv., Tokyo"	35.727687		139.848471														32.1	27.4	7.77																											2020/06/22	2020/06/22
PRA000100	SAA007043	ST015				OsakaCity07_2018Winter_AM	Water	"River water"	2018	2	28		AM		Cloudy	Asia	Japan	"Juhachijou-ohashi bridge, Kanzaki-gawa Riv., Osaka city"	34.748986		135.49703														14	13.25	7.25		57.4																									2020/06/22	2020/06/22
PRA000100	SAA007044	ST015				OsakaCity07_2018Winter_PM	Water	"River water"	2018	2	28		PM		Cloudy	Asia	Japan	"Juhachijou-ohashi bridge, Kanzaki-gawa Riv., Osaka city"	34.748986		135.49703														16.4	12.97	7.27		51.8																									2020/06/22	2020/06/22
PRA000100	SAA007045	ST015				OsakaCity08_2018Winter_AM	Water	"River water"	2018	2	28		AM		Cloudy	Asia	Japan	"Enoki bridge, Kanzaki-gawa Riv., Osaka city"	34.7513		135.492125														16.7	13.65	7.12		66.9																									2020/06/22	2020/06/22
PRA000100	SAA007046	ST015				OsakaCity08_2018Winter_PM	Water	"River water"	2018	2	28		PM		Cloudy	Asia	Japan	"Enoki bridge, Kanzaki-gawa Riv., Osaka city"	34.7513		135.492125														16	14.05	7.2		123																									2020/06/22	2020/06/22
PRA000100	SAA007047	ST015				OsakaCity09_2018Winter_AM	Water	"River water"	2018	2	28		AM		Cloudy	Asia	Japan	"Upstream of Ochiai wharf (Kita-tsumori side), Kizu-gawa Riv., Osaka city"	34.64405		135.479776														18.3	12.58	7.38		1910																									2020/06/22	2020/06/22
PRA000100	SAA007048	ST015				OsakaCity09_2018Winter_PM	Water	"River water"	2018	2	28		PM		Cloudy	Asia	Japan	"Upstream of Ochiai wharf (Kita-tsumori side), Kizu-gawa Riv., Osaka city"	34.64405		135.479776														17	12.1	7.42		1300																									2020/06/22	2020/06/22
PRA000100	SAA007049	ST015				OsakaCity10_2018Winter_AM	Water	"River water"	2018	2	28		AM		Cloudy	Asia	Japan	"Downstream of Ochiai wharf (Tsumori side), Kizu0gawa Riv., Osaka city"	34.64216		135.479906														17.4	14.06	7.09		1880																									2020/06/22	2020/06/22
PRA000100	SAA007050	ST015				OsakaCity10_2018Winter_PM	Water	"River water"	2018	2	28		PM		Cloudy	Asia	Japan	"Downstream of Ochiai wharf (Tsumori side), Kizu0gawa Riv., Osaka city"	34.64216		135.479906														16.5	14.58	6.98		1820																									2020/06/22	2020/06/22
PRA000100	SAA007051	ST015				OsakaCity11_2018Winter_AM	Water	"River water"	2018	2	28		AM		Cloudy	Asia	Japan	"Shigino-ohashi bridge, Daini Neyagawa Riv., Osaka city"	34.688627		135.545553														15	16.32	6.78		59.5																									2020/06/22	2020/06/22
PRA000100	SAA007052	ST015				OsakaCity11_2018Winter_PM	Water	"River water"	2018	2	28		PM		Cloudy	Asia	Japan	"Shigino-ohashi bridge, Daini Neyagawa Riv., Osaka city"	34.688627		135.545553														19.3	16.89	6.83		65.3																									2020/06/22	2020/06/22
PRA000100	SAA007053	ST015				OsakaCity12_2018Winter_AM	Water	"River water"	2018	2	28		AM		Cloudy	Asia	Japan	"Shimoshiromi bridge, Daini Neyagawa Riv., Osaka city"	34.689562		135.537748														15.2	15.67	6.87		51.4																									2020/06/22	2020/06/22
PRA000100	SAA007054	ST015				OsakaCity12_2018Winter_PM	Water	"River water"	2018	2	28		PM		Cloudy	Asia	Japan	"Shimoshiromi bridge, Daini Neyagawa Riv., Osaka city"	34.689562		135.537748														18.9	16.27	6.85		63.9																									2020/06/22	2020/06/22
PRA000100	SAA007055	ST015				OsakaCity13_2018Winter_AM	Water	"River water"	2018	2	28		AM		Cloudy	Asia	Japan	"Kema Watergate, Oh-kawa Riv., Osaka City"	34.721115		135.517125														14.5	11.36	7.63		18.3																									2020/06/22	2020/06/22
PRA000100	SAA007056	ST015				OsakaCity13_2018Winter_PM	Water	"River water"	2018	2	28		PM		Cloudy	Asia	Japan	"Kema Watergate, Oh-kawa Riv., Osaka City"	34.721115		135.517125														18.8	12.54	7.79		24.2																									2020/06/22	2020/06/22
PRA000100	SAA007057	ST015				HyogoPref14_2018Winter_AM	Water	"River water"	2018	2	15		AM		Cloudy	Asia	Japan	"Upstream of Sewage Treatment Plant, Muko-gawa Riv., Hyogo"	34.860611		135.266559														7	5	8		26				>0.3																					2020/06/22	2020/06/22
PRA000100	SAA007058	ST015				HyogoPref14_2018Winter_PM	Water	"River water"	2018	2	15		PM		Cloudy	Asia	Japan	"Upstream of Sewage Treatment Plant, Muko-gawa Riv., Hyogo"	34.860611		135.266559														9	7.1	7.5		23				>0.3																					2020/06/22	2020/06/22
PRA000100	SAA007059	ST015				HyogoPref15_2018Winter_AM	Water	"River water"	2018	2	15		AM		Cloudy	Asia	Japan	"Downstream of Sewage Treatment Plant, Muko-gawa Riv., Hyogo"	34.862497		135.271899														8.8	7.6	8		34				>0.3																					2020/06/22	2020/06/22
PRA000100	SAA007060	ST015				HyogoPref15_2018Winter_PM	Water	"River water"	2018	2	15		PM		Cloudy	Asia	Japan	"Downstream of Sewage Treatment Plant, Muko-gawa Riv., Hyogo"	34.862497		135.271899														8.8	9.1	7.1		31.6				>0.3																					2020/06/22	2020/06/22
PRA000100	SAA007061	ST015				HyogoPref16_2018Winter_AM	Water	"River water"	2018	2	20		AM		Fair	Asia	Japan	"Inagawa bridge, Ina-gawa Riv., Hyogo"	34.769842		135.43758														9.5	9.1	7.1		19.4				>0.3																					2020/06/22	2020/06/22
PRA000100	SAA007062	ST015				HyogoPref16_2018Winter_PM	Water	"River water"	2018	2	20		PM		Fair	Asia	Japan	"Inagawa bridge, Ina-gawa Riv., Hyogo"	34.769842		135.43758														11	14	6.9		19.9				>0.3																					2020/06/22	2020/06/22
PRA000100	SAA007063	ST015				HyogoPref17_2018Winter_AM	Water	"River water"	2018	2	20		AM		Fair	Asia	Japan	"Tokura  bridge, Ina-gawa Riv., Hyogo"	34.761609		135.455115														10	16.1	6.7		43.8				>0.3																					2020/06/22	2020/06/22
PRA000100	SAA007064	ST015				HyogoPref17_2018Winter_PM	Water	"River water"	2018	2	20		PM		Fair	Asia	Japan	"Tokura  bridge, Ina-gawa Riv., Hyogo"	34.761609		135.455115														10.5	17.2	6.5		44.8				>0.3																					2020/06/22	2020/06/22
PRA000100	SAA007065	ST015				HyogoPref18_2018Winter_AM	Water	"River water"	2018	2	8		AM		Fair	Asia	Japan	"Banzai  bridge, Kako-gawa Riv., Hyogo"	34.822275		134.935273														6	3.8	7.6		21.9				>0.3																					2020/06/22	2020/06/22
PRA000100	SAA007066	ST015				HyogoPref18_2018Winter_PM	Water	"River water"	2018	2	8		PM		Fair	Asia	Japan	"Banzai  bridge, Kako-gawa Riv., Hyogo"	34.822275		134.935273														7.5	6.6	7.2		21.3				>0.3																					2020/06/22	2020/06/22
PRA000100	SAA007067	ST015				HyogoPref19_2018Winter_AM	Water	"River water"	2018	2	8		AM		Fair	Asia	Japan	"Leftshore of Kamisho Bridge, Kako-gawa Riv., Hyogo"	34.796573		134.900129														4	4.8	7.7		26.6				>0.3																					2020/06/22	2020/06/22
PRA000100	SAA007068	ST015				HyogoPref19_2018Winter_PM	Water	"River water"	2018	2	8		PM		Fair	Asia	Japan	"Leftshore of Kamisho Bridge, Kako-gawa Riv., Hyogo"	34.796573		134.900129														6.5	6.3	7.6		29.9				>0.3																					2020/06/22	2020/06/22
PRA000100	SAA007069	ST015				HyogoPref20_2018Winter_AM	Water	"River water"	2018	2	8		AM		Fair	Asia	Japan	"Rightshore of Kamisho Bridge, Kako-gawa Riv., Hyogo"	34.797826		134.899419														4.5	5	7.2		24.5				>0.3																					2020/06/22	2020/06/22
PRA000100	SAA007070	ST015				HyogoPref20_2018Winter_PM	Water	"River water"	2018	2	8		PM		Fair	Asia	Japan	"Rightshore of Kamisho Bridge, Kako-gawa Riv., Hyogo"	34.797826		134.899419														6.5	5.5	7.6		24.7				>0.3																					2020/06/22	2020/06/22
PRA000100	SAA007071	ST015				HyogoPref21_2018Winter_AM	Water	"River water"	2018	2	8		AM		Fair	Asia	Japan	"Kakogawa  Bridge, Kako-gawa Riv., Hyogo"	34.772654		134.828232														5	4.5	7.2		24.1				>0.3																					2020/06/22	2020/06/22
PRA000100	SAA007072	ST015				HyogoPref21_2018Winter_PM	Water	"River water"	2018	2	8		PM		Fair	Asia	Japan	"Kakogawa  Bridge, Kako-gawa Riv., Hyogo"	34.772654		134.828232														7	5.3	7.6		24.1				>0.3																					2020/06/22	2020/06/22
PRA000100	SAA007073	ST015				NagoyaCity22_2018Winter_AM	Water	"River water"	2018	2	27		AM		Fair	Asia	Japan	"Chuji bridge, Yamazaki-gawa Riv., Nagoya city, Aichi"	35.10286		136.920674																																											2020/06/22	2020/06/22
PRA000100	SAA007074	ST015				NagoyaCity22_2018Winter_PM	Water	"River water"	2018	2	27		PM		Fair	Asia	Japan	"Chuji bridge, Yamazaki-gawa Riv., Nagoya city, Aichi"	35.10286		136.920674															17	7.32																											2020/06/22	2020/06/22
PRA000100	SAA007075	ST015				NagoyaCity23_2018Winter_AM	Water	"River water"	2018	2	27		AM		Fair	Asia	Japan	"Hosei bridge, Yamazaki-gawa Riv., Nagoya city, Aichi"	35.097963		136.919463																																											2020/06/22	2020/06/22
PRA000100	SAA007076	ST015				NagoyaCity23_2018Winter_PM	Water	"River water"	2018	2	27		PM		Fair	Asia	Japan	"Hosei bridge, Yamazaki-gawa Riv., Nagoya city, Aichi"	35.097963		136.919463															17.1	7.31																											2020/06/22	2020/06/22
PRA000100	SAA007077	ST015				NagoyaCity24_2018Winter_AM	Water	"River water"	2018	2	27		AM		Fair	Asia	Japan	"Johoku bridge, Hori-kawa Riv., Nagoya city, Aichi"	35.192455		136.903276																																											2020/06/22	2020/06/22
PRA000100	SAA007078	ST015				NagoyaCity24_2018Winter_PM	Water	"River water"	2018	2	27		PM		Fair	Asia	Japan	"Johoku bridge, Hori-kawa Riv., Nagoya city, Aichi"	35.192455		136.903276															16.8	7.05																											2020/06/22	2020/06/22
PRA000100	SAA007079	ST015				NagoyaCity25_2018Winter_AM	Water	"River water"	2018	2	27		AM		Fair	Asia	Japan	"Nakatsuchito bridge, Hori-kawa Riv., Nagoya city, Aichi"	35.190792		136.899916																																											2020/06/22	2020/06/22
PRA000100	SAA007080	ST015				NagoyaCity25_2018Winter_PM	Water	"River water"	2018	2	27		PM		Fair	Asia	Japan	"Nakatsuchito bridge, Hori-kawa Riv., Nagoya city, Aichi"	35.190792		136.899916															16.5	7.04																											2020/06/22	2020/06/22
PRA000100	SAA007081	ST015				NagoyaCity26_2018Winter_AM	Water	"River water"	2018	2	27		AM		Fair	Asia	Japan	"Ooseko bridge, Hori-kawa Riv., Nagoya city, Aichi"	35.119784		136.903238																																											2020/06/22	2020/06/22
PRA000100	SAA007082	ST015				NagoyaCity26_2018Winter_PM	Water	"River water"	2018	2	27		PM		Fair	Asia	Japan	"Ooseko bridge, Hori-kawa Riv., Nagoya city, Aichi"	35.119784		136.903238															15.9	7.36																											2020/06/22	2020/06/22
PRA000100	SAA007083	ST015				NagoyaCity27_2018Winter_AM	Water	"River water"	2018	2	27		AM		Fair	Asia	Japan	"Kizaemon bridge, Hori-kawa Riv., Nagoya city, Aichi"	35.111162		136.900416																																											2020/06/22	2020/06/22
PRA000100	SAA007084	ST015				NagoyaCity27_2018Winter_PM	Water	"River water"	2018	2	27		PM		Fair	Asia	Japan	"Kizaemon bridge, Hori-kawa Riv., Nagoya city, Aichi"	35.111162		136.900416															15.3	7.39																											2020/06/22	2020/06/22
PRA000100	SAA007085	ST015				NagoyaCity28_2018Winter_AM	Water	"River water"	2018	2	27		AM		Fair	Asia	Japan	"Maizuru bridge, Shinhori-kawa Riv., Nagoya city, Aichi"	35.159524		136.91																																											2020/06/22	2020/06/22
PRA000100	SAA007086	ST015				NagoyaCity28_2018Winter_PM	Water	"River water"	2018	2	27		PM		Fair	Asia	Japan	"Maizuru bridge, Shinhori-kawa Riv., Nagoya city, Aichi"	35.159524		136.91															17	7.24																											2020/06/22	2020/06/22
PRA000100	SAA007087	ST015				Tokyo29_2018Winter_AM	Water	"River water"	2018	2	27		AM		Fair	Asia	Japan	"Nagata bridge, Tama-gawa Riv., Tokyo"	35.739004		139.318815														9.2	8.2																												2020/06/22	2020/06/22
PRA000100	SAA007088	ST015				Tokyo29_2018Winter_PM	Water	"River water"	2018	2	27		PM		Cloudy	Asia	Japan	"Nagata bridge, Tama-gawa Riv., Tokyo"	35.739004		139.318815														13.1	16.2																												2020/06/22	2020/06/22
PRA000100	SAA007089	ST015				Tokyo30_2018Winter_AM	Water	"River water"	2018	2	27		AM		Cloudy	Asia	Japan	"Hino-bashi bridge, Tama-gawa Riv., Tokyo"	35.683052		139.412492														9.8	15.3																												2020/06/22	2020/06/22
PRA000100	SAA007090	ST015				Tokyo30_2018Winter_PM	Water	"River water"	2018	2	27		PM		Fair	Asia	Japan	"Hino-bashi bridge, Tama-gawa Riv., Tokyo"	35.683052		139.412492														13	16.2																												2020/06/22	2020/06/22
PRA000100	SAA007091	ST015				Tokyo31_2018Winter_AM	Water	"River water"	2018	2	27		AM		Cloudy	Asia	Japan	"Sekido bridge, Tama-gawa Riv., Tokyo"	35.653498		139.455179														7.3	12																												2020/06/22	2020/06/22
PRA000100	SAA007092	ST015				Tokyo31_2018Winter_PM	Water	"River water"	2018	2	27		PM		Fair	Asia	Japan	"Sekido bridge, Tama-gawa Riv., Tokyo"	35.653498		139.455179														13.8	14.3																												2020/06/22	2020/06/22
PRA000100	SAA007093	ST015				Tokyo32_2018Winter_AM	Water	"River water"	2018	2	27		AM		Fair	Asia	Japan	"Tamagawara-bashi bridge, Tama-gawa Riv., Tokyo"	35.643876		139.525471														10.3	14.2																												2020/06/22	2020/06/22
PRA000100	SAA007094	ST015				Tokyo32_2018Winter_PM	Water	"River water"	2018	2	27		PM		Fair	Asia	Japan	"Tamagawara-bashi bridge, Tama-gawa Riv., Tokyo"	35.643876		139.525471														12.6	14.6																												2020/06/22	2020/06/22
PRA000100	SAA007095	ST015				Tokyo33_2018Winter_AM	Water	"River water"	2018	2	27		AM		Cloudy	Asia	Japan	"Hoon-bashi bridge, Oguri-gawa Riv., Tokyo"	35.648532		139.457918														7.5	10.1																												2020/06/22	2020/06/22
PRA000100	SAA007096	ST015				Tokyo33_2018Winter_PM	Water	"River water"	2018	2	27		PM		Fair	Asia	Japan	"Hoon-bashi bridge, Oguri-gawa Riv., Tokyo"	35.648532		139.457918														13.8	12.6																												2020/06/22	2020/06/22
PRA000100	SAA007097	ST015				Tokyo34_2018Winter_AM	Water	"River water"	2018	2	27		AM		Cloudy	Asia	Japan	"Takahata bridge, Asa-kawa Riv., Tokyo"	35.664964		139.407388														6.8	10.1																												2020/06/22	2020/06/22
PRA000100	SAA007098	ST015				Tokyo34_2018Winter_PM	Water	"River water"	2018	2	27		PM		Fair	Asia	Japan	"Takahata bridge, Asa-kawa Riv., Tokyo"	35.664964		139.407388														11.7	14.3																												2020/06/22	2020/06/22
PRA000100	SAA007099	ST015				Tokyo35_2018Winter_AM	Water	"River water"	2018	2	21		AM		Fair	Asia	Japan	"Seiryu-bashi bridge, Yanase-gawa Riv., Kiyose city, Tokyo"	35.80483		139.538193														13	14.3																												2020/06/22	2020/06/22
PRA000100	SAA007100	ST015				Tokyo35_2018Winter_PM	Water	"River water"	2018	2	21		PM		Cloudy	Asia	Japan	"Seiryu-bashi bridge, Yanase-gawa Riv., Kiyose city, Tokyo"	35.80483		139.538193														10.8	15																												2020/06/22	2020/06/22
PRA000100	SAA007101	ST015				Tokyo36_2018Winter_AM	Water	"River water"	2018	2	21		AM		Fair	Asia	Japan	"Sakae bridge, Yanase-gawa Riv., Shiki city, Saitama"	35.835634		139.580318														10.8	18.8																												2020/06/22	2020/06/22
PRA000100	SAA007102	ST015				Tokyo36_2018Winter_PM	Water	"River water"	2018	2	21		PM		Fair	Asia	Japan	"Sakae bridge, Yanase-gawa Riv., Shiki city, Saitama"	35.835634		139.580318														14.2	19.2																												2020/06/22	2020/06/22
PRA000100	SAA007103	ST015				Tokyo37_2018Winter_AM	Water	"River water"	2019	1	9		AM		Fair	Asia	Japan	"Ohgi-ohashi bridge, Ara-kawa Riv., Adachi Ward, Tokyo"	35.757589		139.770681														5.7	10.5	7.38																											2020/06/22	2020/06/22
PRA000100	SAA007104	ST015				Tokyo37_2018Winter_PM	Water	"River water"	2019	1	9		PM		Fair	Asia	Japan	"Ohgi-ohashi bridge, Ara-kawa Riv., Adachi Ward, Tokyo"	35.757589		139.770681														6.4	10.8	7.48																											2020/06/22	2020/06/22
PRA000100	SAA007105	ST015				Tokyo38_2018Winter_AM	Water	"River water"	2019	1	9		AM		Fair	Asia	Japan	"Horikiri bridge, Ara-kawa Riv., Tokyo"	35.745773		139.819413														6.8	9.5	7.42																											2020/06/22	2020/06/22
PRA000100	SAA007106	ST015				Tokyo38_2018Winter_PM	Water	"River water"	2019	1	9		PM		Fair	Asia	Japan	"Horikiri bridge, Ara-kawa Riv., Tokyo"	35.745773		139.819413														7.3	9.8	7.37																											2020/06/22	2020/06/22
PRA000100	SAA007107	ST015				Tokyo39_2018Winter_AM	Water	"River water"	2019	1	8		AM		Fair	Asia	Japan	"Odai Bridge, Sumida-gawa Riv., Tokyo"	35.754176		139.762566														11.2	12.5	7.04																											2020/06/22	2020/06/22
PRA000100	SAA007108	ST015				Tokyo39_2018Winter_PM	Water	"River water"	2019	1	8		PM		Fair	Asia	Japan	"Odai Bridge, Sumida-gawa Riv., Tokyo"	35.754176		139.762566														13	13	7.08																											2020/06/22	2020/06/22
PRA000100	SAA007109	ST015				Tokyo40_2018Winter_AM	Water	"River water"	2019	1	8		AM		Fair	Asia	Japan	"Ryogoku Bridge, Sumida Riv., Tokyo"	35.694258		139.788704														12	11.5	7.8																											2020/06/22	2020/06/22
PRA000100	SAA007110	ST015				Tokyo40_2018Winter_PM	Water	"River water"	2019	1	8		PM		Fair	Asia	Japan	"Ryogoku Bridge, Sumida Riv., Tokyo"	35.694258		139.788704														12	11.5	7.53																											2020/06/22	2020/06/22
PRA000100	SAA007111	ST015				Tokyo41_2018Winter_AM	Water	"River water"	2018	3	6		AM		Fair	Asia	Japan	"Shiodome bridge, Naka-gawa Riv., Saitama"	35.800727		139.85166														11.5	14.5																												2020/06/22	2020/06/22
PRA000100	SAA007112	ST015				Tokyo41_2018Winter_PM	Water	"River water"	2018	3	6		PM		Fair	Asia	Japan	"Shiodome bridge, Naka-gawa Riv., Saitama"	35.800727		139.85166														11.1	14																												2020/06/22	2020/06/22
PRA000100	SAA007113	ST015				Tokyo42_2018Winter_AM	Water	"River water"	2018	3	6		AM		Fair	Asia	Japan	"Heiwa bridge, Naka-gawa Riv., Tokyo"	35.727687		139.848471														14	13.5																												2020/06/22	2020/06/22
PRA000100	SAA007114	ST015				Tokyo42_2018Winter_PM	Water	"River water"	2018	3	6		PM		Fair	Asia	Japan	"Heiwa bridge, Naka-gawa Riv., Tokyo"	35.727687		139.848471														12.1	14.5																												2020/06/22	2020/06/22
PRA000100	SAA007115	ST015				FukuokaCity01_2018Summer_AM	Water	"River water"	2018	7	25		AM		Fair	Asia	Japan	"Kasuya-ohashi bridge, Kubara-gawa Riv., Fukuoka city"	33.63292		130.478904														36.1	31	8.3		29.5																									2020/10/2	2020/10/2
PRA000100	SAA007116	ST015				FukuokaCity01_2018Summer_PM	Water	"River water"	2018	7	25		PM		Fair	Asia	Japan	"Kasuya-ohashi bridge, Kubara-gawa Riv., Fukuoka city"	33.63292		130.478904														37.5	33	8.8		30.3																									2020/10/2	2020/10/2
PRA000100	SAA007117	ST015				FukuokaCity02_2018Summer_AM	Water	"River water"	2018	7	25		AM		Fair	Asia	Japan	"Okawa-bashi bridge, Tatara-gawa Riv., Fukuoka"	33.625244		130.475672														31	29.3	8		23.9																									2020/10/2	2020/10/2
PRA000100	SAA007118	ST015				FukuokaCity02_2018Summer_PM	Water	"River water"	2018	7	25		PM		Fair	Asia	Japan	"Okawa-bashi bridge, Tatara-gawa Riv., Fukuoka"	33.625244		130.475672														35	32	8.5		23.6																									2020/10/2	2020/10/2
PRA000100	SAA007119	ST015				FukuokaCity03_2018Summer_AM	Water	"River water"	2018	7	25		AM		Fair	Asia	Japan	"Amouzu-bashi bridge, upstream of Tatara-gawa Riv., Fukuoka"	33.630287		130.46797														35	31	7.8		25.1																									2020/10/2	2020/10/2
PRA000100	SAA007120	ST015				FukuokaCity03_2018Summer_PM	Water	"River water"	2018	7	25		PM		Fair	Asia	Japan	"Amouzu-bashi bridge, upstream of Tatara-gawa Riv., Fukuoka"	33.630287		130.46797														33.2	30.8	8.2		25																									2020/10/2	2020/10/2
PRA000100	SAA007121	ST015				FukuokaCity04_2018Summer_AM	Water	"River water"	2018	7	25		AM		Fair	Asia	Japan	"Najima-bashi bridge, downstream of Tatara-gawa Riv., Fukuoka"	33.639706		130.426939														37.1	31.5	7.8		1650																									2020/10/2	2020/10/2
PRA000100	SAA007122	ST015				FukuokaCity04_2018Summer_PM	Water	"River water"	2018	7	25		PM		Fair	Asia	Japan	"Najima-bashi bridge, downstream of Tatara-gawa Riv., Fukuoka"	33.639706		130.426939														38	31	7.7		1420																									2020/10/2	2020/10/2
PRA000100	SAA007123	ST015				FukuokaCity05_2018Summer_AM	Water	"River water"	2018	7	25		AM		Fair	Asia	Japan	"Kyuya-bashi bridge, downstream of Sue-gawa Riv., Fukuoka"	33.624055		130.430771														34.3	31.8	8.5		402																									2020/10/2	2020/10/2
PRA000100	SAA007124	ST015				FukuokaCity05_2018Summer_PM	Water	"River water"	2018	7	25		PM		Fair	Asia	Japan	"Kyuya-bashi bridge, downstream of Sue-gawa Riv., Fukuoka"	33.624055		130.430771														36.2	33	8.5		603																									2020/10/2	2020/10/2
PRA000100	SAA007125	ST015				FukuokaCity06_2018Summer_AM	Water	"River water"	2018	7	25		AM		Fair	Asia	Japan	"Tounomoto-bashi bridge, downstream of Umi-gawa Riv., Fukuoka"	33.623557		130.430194														33	30	7.6		891																									2020/10/2	2020/10/2
PRA000100	SAA007126	ST015				FukuokaCity06_2018Summer_PM	Water	"River water"	2018	7	25		PM		Fair	Asia	Japan	"Tounomoto-bashi bridge, downstream of Umi-gawa Riv., Fukuoka"	33.623557		130.430194														35	31.8	7.6		849																									2020/10/2	2020/10/2
PRA000100	SAA007127	ST015				FukuokaCity01_2018Winter_AM	Water	"River water"	2018	2	13		AM		Fair	Asia	Japan	"Kasuya-ohashi bridge, Kubara-gawa Riv., Fukuoka city"	33.63292		130.478904																8		38																									2020/10/2	2020/10/2
PRA000100	SAA007128	ST015				FukuokaCity01_2018Winter_PM	Water	"River water"	2018	2	13		PM		Fair	Asia	Japan	"Kasuya-ohashi bridge, Kubara-gawa Riv., Fukuoka city"	33.63292		130.478904																8.5		36.6																									2020/10/2	2020/10/2
PRA000100	SAA007129	ST015				FukuokaCity02_2018Winter_AM	Water	"River water"	2018	2	13		AM		Fair	Asia	Japan	"Okawa-bashi bridge, Tatara-gawa Riv., Fukuoka"	33.625244		130.475672																8.1		24.8																									2020/10/2	2020/10/2
PRA000100	SAA007130	ST015				FukuokaCity02_2018Winter_PM	Water	"River water"	2018	2	13		PM		Fair	Asia	Japan	"Okawa-bashi bridge, Tatara-gawa Riv., Fukuoka"	33.625244		130.475672																8.2		26.7																									2020/10/2	2020/10/2
PRA000100	SAA007131	ST015				FukuokaCity03_2018Winter_AM	Water	"River water"	2018	2	13		AM		Fair	Asia	Japan	"Amouzu-bashi bridge, upstream of Tatara-gawa Riv., Fukuoka"	33.630287		130.46797																8.1		27.2																									2020/10/2	2020/10/2
PRA000100	SAA007132	ST015				FukuokaCity03_2018Winter_PM	Water	"River water"	2018	2	13		PM		Fair	Asia	Japan	"Amouzu-bashi bridge, upstream of Tatara-gawa Riv., Fukuoka"	33.630287		130.46797																8.1		30																									2020/10/2	2020/10/2
PRA000100	SAA007133	ST015				FukuokaCity04_2018Winter_AM	Water	"River water"	2018	2	13		AM		Fair	Asia	Japan	"Najima-bashi bridge, downstream of Tatara-gawa Riv., Fukuoka"	33.639706		130.426939																7.7		2210																									2020/10/2	2020/10/2
PRA000100	SAA007134	ST015				FukuokaCity04_2018Winter_PM	Water	"River water"	2018	2	13		PM		Fair	Asia	Japan	"Najima-bashi bridge, downstream of Tatara-gawa Riv., Fukuoka"	33.639706		130.426939																7.8		1010																									2020/10/2	2020/10/2
PRA000100	SAA007135	ST015				FukuokaCity05_2018Winter_AM	Water	"River water"	2018	2	13		AM		Fair	Asia	Japan	"Kyuya-bashi bridge, downstream of Sue-gawa Riv., Fukuoka"	33.624055		130.430771																7.5		790																									2020/10/2	2020/10/2
PRA000100	SAA007136	ST015				FukuokaCity05_2018Winter_PM	Water	"River water"	2018	2	13		PM		Fair	Asia	Japan	"Kyuya-bashi bridge, downstream of Sue-gawa Riv., Fukuoka"	33.624055		130.430771																8.5		163.8																									2020/10/2	2020/10/2
PRA000100	SAA007137	ST015				FukuokaCity06_2018Winter_AM	Water	"River water"	2018	2	13		AM		Fair	Asia	Japan	"Tounomoto-bashi bridge, downstream of Umi-gawa Riv., Fukuoka"	33.623557		130.430194																7.5		797																									2020/10/2	2020/10/2
PRA000100	SAA007138	ST015				FukuokaCity06_2018Winter_PM	Water	"River water"	2018	2	13		PM		Fair	Asia	Japan	"Tounomoto-bashi bridge, downstream of Umi-gawa Riv., Fukuoka"	33.623557		130.430194																8		261																									2020/10/2	2020/10/2
PRA000114	SAA007837	ST029				ELV-1	Air	"Outdoor air"	2015	10				"40 days (Sep-Oct 2015)"		Asia	Vietnam	"Thuyen village, Bac Giang province"	21.28158889		106.2312806																																										"ELV workshop; Deployment position: Semi-open facility; at 2-3.5m above the ground; Collected using PUF-PAS method with foam discs; "	2021/2/5	2021/2/5
PRA000114	SAA007838	ST029				ELV-2	Air	"Outdoor air"	2015	10				"40 days (Sep-Oct 2015)"		Asia	Vietnam	"Thuyen village, Bac Giang province"	21.28029444		106.2322722																																										"ELV workshop; Deployment position: Semi-open facility; at 2-3.5m above the ground; Collected using PUF-PAS method with foam discs; "	2021/2/5	2021/2/5
PRA000114	SAA007839	ST029				ELV-3	Air	"Outdoor air"	2015	10				"40 days (Sep-Oct 2015)"		Asia	Vietnam	"Thuyen village, Bac Giang province"	21.28090556		106.2320361																																										"ELV workshop; Deployment position: Semi-open facility; at 2-3.5m above the ground; Collected using PUF-PAS method with foam discs; "	2021/2/5	2021/2/5
PRA000114	SAA007840	ST029				ELV-4	Air	"Outdoor air"	2015	10				"40 days (Sep-Oct 2015)"		Asia	Vietnam	"Thuyen village, Bac Giang province"	21.28045		106.2339333																																										"ELV workshop; Deployment position: Semi-open facility; at 2-3.5m above the ground; Collected using PUF-PAS method with foam discs; "	2021/2/5	2021/2/5
PRA000114	SAA007841	ST029				ELV-5	Air	"Outdoor air"	2015	10				"40 days (Sep-Oct 2015)"		Asia	Vietnam	"Thuyen village, Bac Giang province"	21.28203333		106.2312																																										"ELV workshop; Deployment position: Semi-open facility; at 2-3.5m above the ground; Collected using PUF-PAS method with foam discs; "	2021/2/5	2021/2/5
PRA000114	SAA007842	ST029				ELV-6	Air	"Outdoor air"	2015	10				"40 days (Sep-Oct 2015)"		Asia	Vietnam	"Thuyen village, Bac Giang province"	21.28167222		106.2309																																										"ELV workshop; Deployment position: Semi-open facility; at 2-3.5m above the ground; Collected using PUF-PAS method with foam discs; "	2021/2/5	2021/2/5
PRA000114	SAA007843	ST029				ELV-7	Air	"Outdoor air"	2015	10				"39 days (Sep-Oct 2015)"		Asia	Vietnam	"Thuyen village, Bac Giang province"	21.28197778		106.2304722																																										"ELV workshop; Deployment position: Semi-open facility; at 2-3.5m above the ground; Collected using PUF-PAS method with foam discs; "	2021/2/5	2021/2/5
PRA000114	SAA007844	ST029				ELV-8	Air	"Outdoor air"	2015	10				"39 days (Sep-Oct 2015)"		Asia	Vietnam	"Thuyen village, Bac Giang province"	21.28257222		106.231275																																										"ELV workshop; Deployment position: Semi-open facility; at 2-3.5m above the ground; Collected using PUF-PAS method with foam discs; "	2021/2/5	2021/2/5
PRA000114	SAA007845	ST029				ELV-9	Air	"Outdoor air"	2015	10				"39 days (Sep-Oct 2015)"		Asia	Vietnam	"Thuyen village, Bac Giang province"	21.28293056		106.2317083																																										"ELV workshop; Deployment position: Semi-open facility; at 2-3.5m above the ground; Collected using PUF-PAS method with foam discs; "	2021/2/5	2021/2/5
PRA000114	SAA007846	ST029				RH-1	Air	"Outdoor air"	2015	10				"39 days (Sep-Oct 2015)"		Asia	Vietnam	"Thuyen village, Bac Giang province"	21.28063889		106.2333556																																										"Rural house in ELV site; Deployment position: Entrance porch; at 2-3.5m above the ground; Collected using PUF-PAS method with foam discs; "	2021/2/5	2021/2/5
PRA000114	SAA007847	ST029				WR-1	Air	"Outdoor air"	2015	10				"49 days (Sep-Oct 2015)"		Asia	Vietnam	"Thai Nguyen province"	21.53286667		105.7489833																																										"Plastic recycling facility; Deployment position: Semi-open facility; at 2-3.5m above the ground; Collected using PUF-PAS method with foam discs; "	2021/2/5	2021/2/5
PRA000114	SAA007848	ST029				WR-2	Air	"Outdoor air"	2015	10				"49 days (Sep-Oct 2015)"		Asia	Vietnam	"Thai Nguyen province"	21.53288333		105.7479167																																										"Waste oil refining facility; Deployment position: Semi-open facility; at 2-3.5m above the ground; Collected using PUF-PAS method with foam discs; "	2021/2/5	2021/2/5
PRA000114	SAA007849	ST029				WR-3	Air	"Outdoor air"	2015	10				"49 days (Sep-Oct 2015)"		Asia	Vietnam	"Thai Nguyen province"	21.53217222		105.7494194																																										"Rubber melting kiln; Deployment position: Semi-open facility; at 2-3.5m above the ground; Collected using PUF-PAS method with foam discs; "	2021/2/5	2021/2/5
PRA000114	SAA007850	ST033				UH-1	Air	"Indoor air"	2015	10				"39 days (Sep-Oct 2015)"		Asia	Vietnam	"Hanoi city"	21.96311389		105.8321444																																										"Urban house; Deployment position: Bed room; at 2-3.5m from the floor; Collected using PUF-PAS method with foam discs; "	2021/2/5	2021/2/5
PRA000114	SAA007851	ST033				UH-2	Air	"Indoor air"	2015	10				"31 days (Sep-Oct 2015)"		Asia	Vietnam	"Hanoi city"	21.06272222		105.7816417																																										"Urban house; Deployment position: Living and bedroom; at 2-3.5m from the floor; Collected using PUF-PAS method with foam discs; "	2021/2/5	2021/2/5
PRA000114	SAA007852	ST033				UH-3	Air	"Indoor air"	2015	10				"34 days (Sep-Oct 2015)"		Asia	Vietnam	"Hanoi city"	21.96528889		105.7718139																																										"Urban house; Deployment position: Living room; at 2-3.5m from the floor; Collected using PUF-PAS method with foam discs; "	2021/2/5	2021/2/5
PRA000124	SAA009350	ST013				A-water1	Water	"Brackish water"	2014	9						Aisa	India	"Kosasthalaiyar River, Chennai"	13.225		80.3157																7.07			29.7																							"Collected during wet seasons, but no rain before and during the sampling days."	2023/1/16	2023/1/16
PRA000124	SAA009351	ST013				A-water2	Water	"Brackish water"	2014	9						Aisa	India	"Kosasthalaiyar River, Chennai"	13.234		80.3161																7.78			28.9																							"Collected during wet seasons, but no rain before and during the sampling days."	2023/1/16	2023/1/16
PRA000124	SAA009352	ST013				A-water3	Water	"Brackish water"	2014	9						Aisa	India	"Kosasthalaiyar River, Chennai"	13.231		80.3199																7.3			32.2																							"Collected during wet seasons, but no rain before and during the sampling days."	2023/1/16	2023/1/16
PRA000124	SAA009353	ST013				B-water1	Water	"Brackish water"	2014	9						Aisa	India	"Adyar River, Chennai"	13.0116		80.259																7.9			31.5																							"Collected during wet seasons, but no rain before and during the sampling days."	2023/1/16	2023/1/16
PRA000124	SAA009354	ST013				B-water2	Water	"Brackish water"	2014	9						Aisa	India	"Adyar River, Chennai"	13.0233		80.2748																7.7			30																							"Collected during wet seasons, but no rain before and during the sampling days."	2023/1/16	2023/1/16
PRA000124	SAA009355	ST013				B-water3	Water	"Brackish water"	2014	9						Aisa	India	"Adyar River, Chennai"	13.0135		80.2767																8.25			30.5																							"Collected during wet seasons, but no rain before and during the sampling days."	2023/1/16	2023/1/16
PRA000124	SAA009356	ST013				C-water1	Water	"Brackish water"	2014	9						Aisa	India	"Muttukadu Backwaters, Chennai"	12.8031		80.248																8.17			35.1																							"Collected during wet seasons, but no rain before and during the sampling days."	2023/1/16	2023/1/16
PRA000124	SAA009357	ST013				C-water2	Water	"Brackish water"	2014	9						Aisa	India	"Muttukadu Backwaters, Chennai"	12.8053		80.2431																8.02			32.8																							"Collected during wet seasons, but no rain before and during the sampling days."	2023/1/16	2023/1/16
PRA000124	SAA009358	ST013				C-water3	Water	"Brackish water"	2014	9						Aisa	India	"Muttukadu Backwaters, Chennai"	12.8093		80.2453																8.68			32.8																							"Collected during wet seasons, but no rain before and during the sampling days."	2023/1/16	2023/1/16
PRA000124	SAA009359	ST013				C-water4	Water	"Brackish water"	2014	9						Aisa	India	"Muttukadu Backwaters, Chennai"	12.8099		80.2452																8.7			34.2																							"Collected during wet seasons, but no rain before and during the sampling days."	2023/1/16	2023/1/16
PRA000124	SAA009360	ST013				C-water5	Water	"Brackish water"	2014	9						Aisa	India	"Muttukadu Backwaters, Chennai"	12.8113		80.2463																7.3			31.8																							"Collected during wet seasons, but no rain before and during the sampling days."	2023/1/16	2023/1/16
PRA000124	SAA009361	ST015				D-water1	Water	"River water"	2014	9						Aisa	India	"Vrishabhavathi River, Bengaluru"	12.9455		77.5292																7.26			27																							"Collected during wet seasons, but no rain before and during the sampling days."	2023/1/16	2023/1/16
PRA000124	SAA009362	ST015				D-water2	Water	"River water"	2014	9						Aisa	India	"Vrishabhavathi River, Bengaluru"	12.9347		77.5179																7.16			26.8																							"Collected during wet seasons, but no rain before and during the sampling days."	2023/1/16	2023/1/16
PRA000124	SAA009363	ST015				D-water3	Water	"River water"	2014	9						Aisa	India	"Vrishabhavathi River, Bengaluru"	12.9357		77.5139																7.19			27.2																							"Collected during wet seasons, but no rain before and during the sampling days."	2023/1/16	2023/1/16
PRA000124	SAA009364	ST015				D-water4	Water	"River water"	2014	9						Aisa	India	"Vrishabhavathi River, Bengaluru"	12.9176		77.4913																7.17			26.6																							"Collected during wet seasons, but no rain before and during the sampling days."	2023/1/16	2023/1/16
PRA000124	SAA009365	ST015				D-water5	Water	"River water"	2014	9						Aisa	India	"Vrishabhavathi River, Bengaluru"	12.8729		77.4487																7.17			26																							"Collected during wet seasons, but no rain before and during the sampling days."	2023/1/16	2023/1/16
PRA000124	SAA009366	ST015				E-water1	Water	"River/reservoir water"	2014	9						Aisa	India	"Vrishabhavathi Reservoir, Bengaluru"	12.7607		77.4168																7.21			27.2																							"Collected during wet seasons, but no rain before and during the sampling days."	2023/1/16	2023/1/16
PRA000124	SAA009367	ST015				E-water1'	Water	"River/reservoir water"	2014	9						Aisa	India	"Vrishabhavathi Reservoir, Bengaluru"	12.7607		77.4168																7.03			26.8																							"Collected during wet seasons, but no rain before and during the sampling days."	2023/1/16	2023/1/16
PRA000124	SAA009368	ST015				F-water	Water	"Lake water"	2014	9						Aisa	India	"Gopahalli Lake, Bengaluru"	12.7281		77.416																8.37			26.5																							"Collected during wet seasons, but no rain before and during the sampling days."	2023/1/16	2023/1/16
PRA000124	SAA009369	ST015				D-water6	Water	"River water"	2015	9						Aisa	India	"Vrishabhavathi River, Bengaluru"	12.945		77.5339																7.13		86.1	29.6																							"Collected during wet seasons, but no rain before and during the sampling days."	2023/1/16	2023/1/16
PRA000124	SAA009370	ST015				D-water7	Water	"River water"	2015	9						Aisa	India	"Vrishabhavathi River, Bengaluru"	12.9454		77.5287																7.37		86.8	30																							"Collected during wet seasons, but no rain before and during the sampling days."	2023/1/16	2023/1/16
PRA000124	SAA009371	ST015				D-water8	Water	"River water"	2015	9						Aisa	India	"Vrishabhavathi River, Bengaluru"	12.9348		77.5179																7.39		92.8	29.5																							"Collected during wet seasons, but no rain before and during the sampling days."	2023/1/16	2023/1/16
PRA000124	SAA009372	ST015				D-water9	Water	"River water"	2015	9						Aisa	India	"Vrishabhavathi River, Bengaluru"	12.9354		77.5139																7.44		126.3	30.1																							"Collected during wet seasons, but no rain before and during the sampling days."	2023/1/16	2023/1/16
PRA000124	SAA009373	ST015				D-water10	Water	"River water"	2015	9						Aisa	India	"Vrishabhavathi River, Bengaluru"	12.9176		77.4913																7.59		106	29.4																							"Collected during wet seasons, but no rain before and during the sampling days."	2023/1/16	2023/1/16
PRA000124	SAA009374	ST015				E-water2	Water	"River/reservoir water"	2015	9						Aisa	India	"Vrishabhavathi Reservoir, Bengaluru"	12.7604		77.417																7.28		114.6	32																							"Collected during wet seasons, but no rain before and during the sampling days."	2023/1/16	2023/1/16
PRA000124	SAA009375	ST015				E-water2'	Water	"River/reservoir water"	2015	9						Aisa	India	"Vrishabhavathi Reservoir, Bengaluru"	12.7604		77.417																7.68		111.6	31.9																							"Collected during wet seasons, but no rain before and during the sampling days."	2023/1/16	2023/1/16
PRA000124	SAA009376	ST015				G-water1	Water	"Lake/pond/river water"	2015	9						Aisa	India	"Varthur Kere, Bengaluru"	12.9453		77.7469																7.51		99.6	27.9																							"Collected during wet seasons, but no rain before and during the sampling days."	2023/1/16	2023/1/16
PRA000124	SAA009377	ST015				G-water2	Water	"Lake/pond/river water"	2015	9						Aisa	India	"Varthur Kere, Bengaluru"	12.945		77.7473																7.54		98.1	27.5																							"Collected during wet seasons, but no rain before and during the sampling days."	2023/1/16	2023/1/16
PRA000124	SAA009378	ST015				G-water3	Water	"Lake/pond/river water"	2015	9						Aisa	India	"Varthur Kere, Bengaluru"	12.9409		77.6874																7.4		95.4	27.5																							"Collected during wet seasons, but no rain before and during the sampling days."	2023/1/16	2023/1/16
PRA000124	SAA009379	ST015				G-water4	Water	"Lake/pond/river water"	2015	9						Aisa	India	"Varthur Kere, Bengaluru"	12.946		77.6982																7.4		94.7	27.5																							"Collected during wet seasons, but no rain before and during the sampling days."	2023/1/16	2023/1/16
PRA000124	SAA009380	ST015				G-water5	Water	"Lake/pond/river water"	2015	9						Aisa	India	"Varthur Kere, Bengaluru"	12.9565		77.745																7.75		101	31.6																							"Collected during wet seasons, but no rain before and during the sampling days."	2023/1/16	2023/1/16
PRA000124	SAA009381	ST015				H-water	Water	"Lake/pond water"	2015	9						Aisa	India	"Ulsoor Lake, Bengaluru"	12.9847		77.6218																8.47		36.8	27.3																							"Collected during wet seasons, but no rain before and during the sampling days."	2023/1/16	2023/1/16
PRA000124	SAA009382	ST015				I-water	Water	"Lake/pond water"	2015	1						Aisa	Indoneasia	"Danau Sunter Lake, Jakarta"	-6.1456		106.8812																8.53		421	29.7																							"Collected during wet seasons, but no rain before and during the sampling days."	2023/1/16	2023/1/16
PRA000124	SAA009383	ST015				J-water	Water	"Lake/pond water"	2015	1						Aisa	Indoneasia	"Kemayoran Golf Lake, Jakarta"	-6.1375		106.8494																7.03		366	30.3																							"Collected during wet seasons, but no rain before and during the sampling days."	2023/1/16	2023/1/16
PRA000124	SAA009384	ST015				M-water1	Water	"Lake/pond water"	2015	1						Aisa	Indoneasia	"Setu Gintung Lake, Tangerang"	-6.3067		106.7639																7.44		17.8	29.6																							"Collected during wet seasons, but no rain before and during the sampling days."	2023/1/16	2023/1/16
PRA000124	SAA009385	ST015				M-water2	Water	"Lake/pond water"	2015	1						Aisa	Indoneasia	"Setu Gintung Lake, Tangerang"	-6.3023		106.7647																7.46		17.8	30.2																							"Collected during wet seasons, but no rain before and during the sampling days."	2023/1/16	2023/1/16
PRA000124	SAA009386	ST015				N-water	Water	"Lake/pond water"	2015	1						Aisa	Indoneasia	"Situ Rawa Cipondoh, Tangerang"	-6.1948		106.6716																7.53		28.2	30																							"Collected during wet seasons, but no rain before and during the sampling days."	2023/1/16	2023/1/16
PRA000124	SAA009387	ST015				O-water1	Water	"Stream water"	2015	1						Aisa	Indoneasia	"Kali Petukangan (PIZ), Jakarta"	-6.1894		106.9168																5.22		82.2	28.4																							"Collected during wet seasons, but no rain before and during the sampling days."	2023/1/16	2023/1/16
PRA000124	SAA009388	ST015				O-water2	Water	"Stream water"	2015	1						Aisa	Indoneasia	"Kali Petukangan (PIZ), Jakarta"	-6.1909		106.917																6.75		97.7	28.2																							"Collected during wet seasons, but no rain before and during the sampling days."	2023/1/16	2023/1/16
PRA000124	SAA009389	ST015				O-water3	Water	"Stream water"	2015	1						Aisa	Indoneasia	"Kali Petukangan (PIZ), Jakarta"	-6.1985		106.9172																7.29		57.8	28.7																							"Collected during wet seasons, but no rain before and during the sampling days."	2023/1/16	2023/1/16
PRA000124	SAA009390	ST015				O-water4	Water	"Stream water"	2015	1						Aisa	Indoneasia	"Kali Petukangan (PIZ), Jakarta"	-6.1866		106.9239																7.02		86.6	30.2																							"Collected during wet seasons, but no rain before and during the sampling days."	2023/1/16	2023/1/16
PRA000124	SAA009391	ST015				P-water1	Water	"River water"	2015	1						Aisa	Indoneasia	"Sunter River (downstream of PIZ), Jakarta"	-6.1934		106.9017																7.1		71.4	26.9																							"Collected during wet seasons, but no rain before and during the sampling days."	2023/1/16	2023/1/16
PRA000124	SAA009392	ST015				P-water2	Water	"River water"	2015	1						Aisa	Indoneasia	"Sunter River (downstream of PIZ), Jakarta"	-6.1837		106.9046																7.14		85.4	28.3																							"Collected during wet seasons, but no rain before and during the sampling days."	2023/1/16	2023/1/16
PRA000124	SAA009393	ST015				Q-water1	Water	"River water"	2015	1						Aisa	Indoneasia	"Cakung Drain (downstream of PIZ), Jakarta"	-6.1831		106.9289																6.85		93.4	28.6																							"Collected during wet seasons, but no rain before and during the sampling days."	2023/1/16	2023/1/16
PRA000124	SAA009394	ST015				Q-water2	Water	"River water"	2015	1						Aisa	Indoneasia	"Cakung Drain (downstream of PIZ), Jakarta"	-6.1587		106.9354																6.62		105.5	31																							"Collected during wet seasons, but no rain before and during the sampling days."	2023/1/16	2023/1/16
PRA000124	SAA009395	ST015				Q-water3	Water	"River water"	2015	1						Aisa	Indoneasia	"Cakung Drain (downstream of PIZ), Jakarta"	-6.1531		106.9384																6.64		109.8	30.7																							"Collected during wet seasons, but no rain before and during the sampling days."	2023/1/16	2023/1/16
PRA000124	SAA009396	ST015				Q-water4	Water	"River water"	2015	1						Aisa	Indoneasia	"Cakung Drain (downstream of PIZ), Jakarta"	-6.0979		106.9397																6.49		214	30.3																							"Collected during wet seasons, but no rain before and during the sampling days."	2023/1/16	2023/1/16
PRA000124	SAA009397	ST015				R-water1	Water	"Lake water"	2015	9						Aisa	Vietnam	"Yen So Lake, Hanoi"	20.9746		105.8651																7.37		52.4	30.4																							"Collected during wet seasons, but no rain before and during the sampling days."	2023/1/16	2023/1/16
PRA000124	SAA009398	ST015				R-water2	Water	"Lake water"	2015	9						Aisa	Vietnam	"Yen So Lake, Hanoi"	20.9717		105.8621																7.86		53.3	31																							"Collected during wet seasons, but no rain before and during the sampling days."	2023/1/16	2023/1/16
PRA000124	SAA009399	ST015				R-water3	Water	"Lake water"	2015	9						Aisa	Vietnam	"Yen So Lake, Hanoi"	20.9694		105.8588																8.28		48.1	32																							"Collected during wet seasons, but no rain before and during the sampling days."	2023/1/16	2023/1/16
PRA000124	SAA009400	ST015				R-water4	Water	"Lake water"	2015	9						Aisa	Vietnam	"Yen So Lake, Hanoi"	20.9646		105.8516																8.96		39.2	33.2																							"Collected during wet seasons, but no rain before and during the sampling days."	2023/1/16	2023/1/16
PRA000124	SAA009401	ST015				S-water1	Water	"River water"	2015	9						Aisa	Vietnam	"Da River, Hoa Binh"	20.8222		105.3378																7.74		17.5	27.8																							"Chosen as the control (unpoluted) site.; Collected during wet seasons, but no rain before and during the sampling days."	2023/1/16	2023/1/16
PRA000124	SAA009402	ST015				S-water2	Water	"River water"	2015	9						Aisa	Vietnam	"Da River, Hoa Binh"	20.8278		105.35																7.3		17.1	27.2																							"Chosen as the control (unpoluted) site.; Collected during wet seasons, but no rain before and during the sampling days."	2023/1/16	2023/1/16
PRA000124	SAA009403	ST015				S-water3	Water	"River water"	2015	9						Aisa	Vietnam	"Da River, Hoa Binh"	20.8524		105.3455																7.9		17.3	27.1																							"Chosen as the control (unpoluted) site.; Collected during wet seasons, but no rain before and during the sampling days."	2023/1/16	2023/1/16
PRA000124	SAA009404	ST008	48193			"A-Grey mullet1"	"Mugil cephalus"	"Flathead grey mullet"	2014	9						Aisa	India	"Kosasthalaiyar River, Chennai"	13.234		80.3161		Unknown	Plasma			87	g	17.7	cm																																	"Collected during wet seasons, but no rain before and during the sampling days."	2023/01/16	2023/01/16
PRA000124	SAA009405	ST008	48193			"A-Grey mullet2"	"Mugil cephalus"	"Flathead grey mullet"	2014	9						Aisa	India	"Kosasthalaiyar River, Chennai"	13.234		80.3161		Unknown	Plasma			114	g	20	cm																																	"Collected during wet seasons, but no rain before and during the sampling days."	2023/01/16	2023/01/16
PRA000124	SAA009406	ST008	48193			"A-Grey mullet3"	"Mugil cephalus"	"Flathead grey mullet"	2014	9						Aisa	India	"Kosasthalaiyar River, Chennai"	13.234		80.3161		Female	Plasma			57	g	14.5	cm																																	"Collected during wet seasons, but no rain before and during the sampling days."	2023/01/16	2023/01/16
PRA000124	SAA009407	ST008	48193			"A-Grey mullet4"	"Mugil cephalus"	"Flathead grey mullet"	2014	9						Aisa	India	"Kosasthalaiyar River, Chennai"	13.234		80.3161		Female	Plasma			52	g	13.5	cm																																	"Collected during wet seasons, but no rain before and during the sampling days."	2023/01/16	2023/01/16
PRA000124	SAA009408	ST008	48193			"A-Grey mullet5"	"Mugil cephalus"	"Flathead grey mullet"	2014	9						Aisa	India	"Kosasthalaiyar River, Chennai"	13.234		80.3161		Unknown	Plasma			44	g	13.5	cm																																	"Collected during wet seasons, but no rain before and during the sampling days."	2023/01/16	2023/01/16
PRA000124	SAA009409	ST008	48193			"B-Grey mullet1"	"Mugil cephalus"	"Flathead grey mullet"	2014	9						Aisa	India	"Adyar River, Chennai"	13.0135		80.2767		Unknown	Plasma			136	g	19.5	cm																																	"Collected during wet seasons, but no rain before and during the sampling days."	2023/01/16	2023/01/16
PRA000124	SAA009410	ST008	48193			"B-Grey mullet2"	"Mugil cephalus"	"Flathead grey mullet"	2014	9						Aisa	India	"Adyar River, Chennai"	13.0135		80.2767		Unknown	Plasma			138	g	19.5	cm																																	"Collected during wet seasons, but no rain before and during the sampling days."	2023/01/16	2023/01/16
PRA000124	SAA009411	ST008	48193			"B-Grey mullet3"	"Mugil cephalus"	"Flathead grey mullet"	2014	9						Aisa	India	"Adyar River, Chennai"	13.0135		80.2767		Female	Plasma			202	g	22.5	cm																																	"Collected during wet seasons, but no rain before and during the sampling days."	2023/01/16	2023/01/16
PRA000124	SAA009412	ST008	48193			"C-Grey mullet1"	"Mugil cephalus"	"Flathead grey mullet"	2014	9						Aisa	India	"Muttukadu Backwaters, Chennai"	12.8091		80.2452		Unknown	Plasma			201	g	22.5	cm																																	"Collected during wet seasons, but no rain before and during the sampling days."	2023/01/16	2023/01/16
PRA000124	SAA009413	ST008	48193			"C-Grey mullet2"	"Mugil cephalus"	"Flathead grey mullet"	2014	9						Aisa	India	"Muttukadu Backwaters, Chennai"	12.8091		80.2452		Unknown	Plasma			75	g	15.4	cm																																	"Collected during wet seasons, but no rain before and during the sampling days."	2023/01/16	2023/01/16
PRA000124	SAA009414	ST008	48193			"C-Grey mullet3"	"Mugil cephalus"	"Flathead grey mullet"	2014	9						Aisa	India	"Muttukadu Backwaters, Chennai"	12.8091		80.2452		Unknown	Plasma			57	g	14.7	cm																																	"Collected during wet seasons, but no rain before and during the sampling days."	2023/01/16	2023/01/16
PRA000124	SAA009415	ST008	48193			"C-Grey mullet4"	"Mugil cephalus"	"Flathead grey mullet"	2014	9						Aisa	India	"Muttukadu Backwaters, Chennai"	12.8105		80.2477		Unknown	Plasma			62	g	15.3	cm																																	"Collected during wet seasons, but no rain before and during the sampling days."	2023/01/16	2023/01/16
PRA000124	SAA009416	ST008	8139			C-Tilapia1	"Oreochromis spp."	Tilapia	2014	9						Aisa	India	"Muttukadu Backwaters, Chennai"	12.8091		80.2452		Unknown	Plasma			360	g	22.5	cm																																	"Collected during wet seasons, but no rain before and during the sampling days."	2023/01/16	2023/01/16
PRA000124	SAA009417	ST008	8139			C-Tilapia2	"Oreochromis spp."	Tilapia	2014	9						Aisa	India	"Muttukadu Backwaters, Chennai"	12.8091		80.2452		Unknown	Plasma			129	g	15	cm																																	"Collected during wet seasons, but no rain before and during the sampling days."	2023/01/16	2023/01/16
PRA000124	SAA009418	ST008	8139			C-Tilapia3	"Oreochromis spp."	Tilapia	2014	9						Aisa	India	"Muttukadu Backwaters, Chennai"	12.8091		80.2452		Unknown	Plasma			74	g	13.5	cm																																	"Collected during wet seasons, but no rain before and during the sampling days."	2023/01/16	2023/01/16
PRA000124	SAA009419	ST008	8139			C-Tilapia4	"Oreochromis spp."	Tilapia	2014	9						Aisa	India	"Muttukadu Backwaters, Chennai"	12.8105		80.2477		Unknown	Plasma			100	g	15.5	cm																																	"Collected during wet seasons, but no rain before and during the sampling days."	2023/01/16	2023/01/16
PRA000124	SAA009420	ST008	8139			C-Tilapia5	"Oreochromis spp."	Tilapia	2014	9						Aisa	India	"Muttukadu Backwaters, Chennai"	12.8105		80.2477		Unknown	Plasma			113	g	17	cm																																	"Collected during wet seasons, but no rain before and during the sampling days."	2023/01/16	2023/01/16
PRA000124	SAA009421	ST008	8139			C-Tilapia6	"Oreochromis spp."	Tilapia	2014	9						Aisa	India	"Muttukadu Backwaters, Chennai"	12.8105		80.2477		Unknown	Plasma			116	g	16	cm																																	"Collected during wet seasons, but no rain before and during the sampling days."	2023/01/16	2023/01/16
PRA000124	SAA009422	ST008	8139			C-Tilapia7	"Oreochromis spp."	Tilapia	2014	9						Aisa	India	"Muttukadu Backwaters, Chennai"	12.8105		80.2477		Unknown	Plasma			84	g	14	cm																																	"Collected during wet seasons, but no rain before and during the sampling days."	2023/01/16	2023/01/16
PRA000124	SAA009423	ST008	238232			"C-Green chromide1"	"Etroplus suratensis"	"Green chromide"	2014	9						Aisa	India	"Muttukadu Backwaters, Chennai"	12.8105		80.2477		Unknown	Plasma			94	g	12	cm																																	"Collected during wet seasons, but no rain before and during the sampling days."	2023/01/16	2023/01/16
PRA000124	SAA009424	ST008	13012			E-Catfish1	"Clarias spp."	"Freshwater catfish"	2014	9						Aisa	India	"Vrishabhavathi Reservoir, Bengaluru"	12.7606		77.4169		Unknown	Plasma			900	g	40.5	cm																																	"Collected during wet seasons, but no rain before and during the sampling days."	2023/01/16	2023/01/16
PRA000124	SAA009425	ST008	13012			E-Catfish2	"Clarias spp."	"Freshwater catfish"	2014	9						Aisa	India	"Vrishabhavathi Reservoir, Bengaluru"	12.7606		77.4169		Female	Plasma			2000	g	58.4	cm																																	"Collected during wet seasons, but no rain before and during the sampling days."	2023/01/16	2023/01/16
PRA000124	SAA009426	ST008	8139			F-Tilapia1	"Oreochromis spp."	Tilapia	2014	9						Aisa	India	"Gopahalli Lake, Bengaluru"	12.7302		77.4159		Unknown	Plasma			632	g	25.5	cm																																	"Collected during wet seasons, but no rain before and during the sampling days."	2023/01/16	2023/01/16
PRA000124	SAA009427	ST008	8139			F-Tilapia2	"Oreochromis spp."	Tilapia	2014	9						Aisa	India	"Gopahalli Lake, Bengaluru"	12.7302		77.4159		Female	Plasma			428	g	24.7	cm																																	"Collected during wet seasons, but no rain before and during the sampling days."	2023/01/16	2023/01/16
PRA000124	SAA009428	ST008	8139			F-Tilapia3	"Oreochromis spp."	Tilapia	2014	9						Aisa	India	"Gopahalli Lake, Bengaluru"	12.7302		77.4159		Unknown	Plasma			432	g	22.5	cm																																	"Collected during wet seasons, but no rain before and during the sampling days."	2023/01/16	2023/01/16
PRA000124	SAA009429	ST008	8139			F-Tilapia4	"Oreochromis spp."	Tilapia	2014	9						Aisa	India	"Gopahalli Lake, Bengaluru"	12.7302		77.4159		Unknown	Plasma			359	g	20.8	cm																																	"Collected during wet seasons, but no rain before and during the sampling days."	2023/01/16	2023/01/16
PRA000124	SAA009430	ST008	8139			F-Tilapia5	"Oreochromis spp."	Tilapia	2014	9						Aisa	India	"Gopahalli Lake, Bengaluru"	12.7302		77.4159		Female	Plasma			307	g	21	cm																																	"Collected during wet seasons, but no rain before and during the sampling days."	2023/01/16	2023/01/16
PRA000124	SAA009431	ST008	8139			F-Tilapia6	"Oreochromis spp."	Tilapia	2014	9						Aisa	India	"Gopahalli Lake, Bengaluru"	12.7302		77.4159		Female	Plasma			343	g	20.8	cm																																	"Collected during wet seasons, but no rain before and during the sampling days."	2023/01/16	2023/01/16
PRA000124	SAA009432	ST008	8139			F-Tilapia7	"Oreochromis spp."	Tilapia	2014	9						Aisa	India	"Gopahalli Lake, Bengaluru"	12.7302		77.4159		Female	Plasma			358	g	21	cm																																	"Collected during wet seasons, but no rain before and during the sampling days."	2023/01/16	2023/01/16
PRA000124	SAA009433	ST008	13012			E-Catfish3	"Clarias spp."	"Freshwater catfish"	2015	9						Aisa	India	"Vrishabhavathi Reservoir, Bengaluru"	12.7604		77.417		Male	Plasma			1900	g	50	cm																																	"Collected during wet seasons, but no rain before and during the sampling days."	2023/01/16	2023/01/16
PRA000124	SAA009434	ST008	13012			E-Catfish4	"Clarias spp."	"Freshwater catfish"	2015	9						Aisa	India	"Vrishabhavathi Reservoir, Bengaluru"	12.7604		77.417		Male	Plasma			1700	g	49	cm																																	"Collected during wet seasons, but no rain before and during the sampling days."	2023/01/16	2023/01/16
PRA000124	SAA009435	ST008	13012			E-Catfish5	"Clarias spp."	"Freshwater catfish"	2015	9						Aisa	India	"Vrishabhavathi Reservoir, Bengaluru"	12.7604		77.417		Female	Plasma			2100	g	51	cm																																	"Collected during wet seasons, but no rain before and during the sampling days."	2023/01/16	2023/01/16
PRA000124	SAA009436	ST008	13012			E-Catfish6	"Clarias spp."	"Freshwater catfish"	2015	9						Aisa	India	"Vrishabhavathi Reservoir, Bengaluru"	12.7604		77.417		Male	Plasma			2300	g	52.5	cm																																	"Collected during wet seasons, but no rain before and during the sampling days."	2023/01/16	2023/01/16
PRA000124	SAA009437	ST008	84645			H-Rohu1	"Labeo rohita"	Rohu	2015	9						Aisa	India	"Ulsoor Lake, Bengaluru"	12.9847		77.6218		Unknown	Plasma			192	g	19.6	cm																																	"Collected during wet seasons, but no rain before and during the sampling days."	2023/01/16	2023/01/16
PRA000124	SAA009438	ST008	8139			H-Tilapia1	"Oreochromis spp."	Tilapia	2015	9						Aisa	India	"Ulsoor Lake, Bengaluru"	12.9847		77.6218		Unknown	Plasma			148	g	16	cm																																	"Collected during wet seasons, but no rain before and during the sampling days."	2023/01/16	2023/01/16
PRA000124	SAA009439	ST008	8139			H-Tilapia2	"Oreochromis spp."	Tilapia	2015	9						Aisa	India	"Ulsoor Lake, Bengaluru"	12.9847		77.6218		Unknown	Plasma			304	g	19.7	cm																																	"Collected during wet seasons, but no rain before and during the sampling days."	2023/01/16	2023/01/16
PRA000124	SAA009440	ST008	8139			H-Tilapia3	"Oreochromis spp."	Tilapia	2015	9						Aisa	India	"Ulsoor Lake, Bengaluru"	12.9847		77.6218		Unknown	Plasma			135	g	15	cm																																	"Collected during wet seasons, but no rain before and during the sampling days."	2023/01/16	2023/01/16
PRA000124	SAA009441	ST008	8139			H-Tilapia4	"Oreochromis spp."	Tilapia	2015	9						Aisa	India	"Ulsoor Lake, Bengaluru"	12.9847		77.6218		Unknown	Plasma			157	g	16.5	cm																																	"Collected during wet seasons, but no rain before and during the sampling days."	2023/01/16	2023/01/16
PRA000124	SAA009442	ST008	8139			H-Tilapia5	"Oreochromis spp."	Tilapia	2015	9						Aisa	India	"Ulsoor Lake, Bengaluru"	12.9847		77.6218		Unknown	Plasma			163	g	16.5	cm																																	"Collected during wet seasons, but no rain before and during the sampling days."	2023/01/16	2023/01/16
PRA000124	SAA009443	ST008	8139			H-Tilapia6	"Oreochromis spp."	Tilapia	2015	9						Aisa	India	"Ulsoor Lake, Bengaluru"	12.9847		77.6218		Unknown	Plasma			157	g	16	cm																																	"Collected during wet seasons, but no rain before and during the sampling days."	2023/01/16	2023/01/16
PRA000124	SAA009444	ST008	8139			I-Tilapia1	"Oreochromis spp."	Tilapia	2015	1						Aisa	Indoneasia	"Danau Sunter Lake, Jakarta"	-6.1456		106.8812		Male	Plasma			455	g	22	cm																																	"Collected during wet seasons, but no rain before and during the sampling days."	2023/01/16	2023/01/16
PRA000124	SAA009445	ST008	8139			I-Tilapia2	"Oreochromis spp."	Tilapia	2015	1						Aisa	Indoneasia	"Danau Sunter Lake, Jakarta"	-6.1456		106.8812		Female	Plasma			907	g	28	cm																																	"Collected during wet seasons, but no rain before and during the sampling days."	2023/01/16	2023/01/16
PRA000124	SAA009446	ST008	8139			I-Tilapia3	"Oreochromis spp."	Tilapia	2015	1						Aisa	Indoneasia	"Danau Sunter Lake, Jakarta"	-6.1456		106.8812		Female	Plasma			461	g	22.6	cm																																	"Collected during wet seasons, but no rain before and during the sampling days."	2023/01/16	2023/01/16
PRA000124	SAA009447	ST008	8139			I-Tilapia4	"Oreochromis spp."	Tilapia	2015	1						Aisa	Indoneasia	"Danau Sunter Lake, Jakarta"	-6.1456		106.8812		Unknown	Plasma			483	g	22.5	cm																																	"Collected during wet seasons, but no rain before and during the sampling days."	2023/01/16	2023/01/16
PRA000124	SAA009448	ST008	8139			I-Tilapia5	"Oreochromis spp."	Tilapia	2015	1						Aisa	Indoneasia	"Danau Sunter Lake, Jakarta"	-6.1456		106.8812		Unknown	Plasma			699	g	24.5	cm																																	"Collected during wet seasons, but no rain before and during the sampling days."	2023/01/16	2023/01/16
PRA000124	SAA009449	ST008	8139			I-Tilapia6	"Oreochromis spp."	Tilapia	2015	1						Aisa	Indoneasia	"Danau Sunter Lake, Jakarta"	-6.1456		106.8812		Female	Plasma			728	g	27.8	cm																																	"Collected during wet seasons, but no rain before and during the sampling days."	2023/01/16	2023/01/16
PRA000124	SAA009450	ST008	8139			I-Tilapia7	"Oreochromis spp."	Tilapia	2015	1						Aisa	Indoneasia	"Danau Sunter Lake, Jakarta"	-6.1456		106.8812		Unknown	Plasma			422	g	22.4	cm																																	"Collected during wet seasons, but no rain before and during the sampling days."	2023/01/16	2023/01/16
PRA000124	SAA009451	ST008	8139			I-Tilapia8	"Oreochromis spp."	Tilapia	2015	1						Aisa	Indoneasia	"Danau Sunter Lake, Jakarta"	-6.1456		106.8812		Unknown	Plasma			598	g	23.3	cm																																	"Collected during wet seasons, but no rain before and during the sampling days."	2023/01/16	2023/01/16
PRA000124	SAA009452	ST008	8139			I-Tilapia9	"Oreochromis spp."	Tilapia	2015	1						Aisa	Indoneasia	"Danau Sunter Lake, Jakarta"	-6.1456		106.8812		Male	Plasma			748	g	26.5	cm																																	"Collected during wet seasons, but no rain before and during the sampling days."	2023/01/16	2023/01/16
PRA000124	SAA009453	ST008	8139			I-Tilapia10	"Oreochromis spp."	Tilapia	2015	1						Aisa	Indoneasia	"Danau Sunter Lake, Jakarta"	-6.1456		106.8812		Female	Plasma			371	g	20.2	cm																																	"Collected during wet seasons, but no rain before and during the sampling days."	2023/01/16	2023/01/16
PRA000124	SAA009454	ST008	164016			"I-Janitor fish1"	"Pterygoplichthys spp."	"Janitor fish/Sailfin catfish"	2015	1						Aisa	Indoneasia	"Danau Sunter Lake, Jakarta"	-6.1456		106.8812		Unknown	Plasma			356	g	24	cm																																	"Collected during wet seasons, but no rain before and during the sampling days."	2023/01/16	2023/01/16
PRA000124	SAA009455	ST008	164016			"I-Janitor fish 2"	"Pterygoplichthys spp."	"Janitor fish/Sailfin catfish"	2015	1						Aisa	Indoneasia	"Danau Sunter Lake, Jakarta"	-6.1456		106.8812		Unknown	Plasma			359	g	28.5	cm																																	"Collected during wet seasons, but no rain before and during the sampling days."	2023/01/16	2023/01/16
PRA000124	SAA009456	ST008	8139			J-Tilapia1	"Oreochromis spp."	Tilapia	2015	1						Aisa	Indoneasia	"Kemayoran Golf Lake, Jakarta"	-6.1375		106.8494		Female	Plasma			43	g	10.6	cm																																	"Collected during wet seasons, but no rain before and during the sampling days."	2023/01/16	2023/01/16
PRA000124	SAA009457	ST008	8139			J-Tilapia2	"Oreochromis spp."	Tilapia	2015	1						Aisa	Indoneasia	"Kemayoran Golf Lake, Jakarta"	-6.1375		106.8494		Unknown	Plasma			42	g	10.9	cm																																	"Collected during wet seasons, but no rain before and during the sampling days."	2023/01/16	2023/01/16
PRA000124	SAA009458	ST008	8139			J-Tilapia3	"Oreochromis spp."	Tilapia	2015	1						Aisa	Indoneasia	"Kemayoran Golf Lake, Jakarta"	-6.1375		106.8494		Unknown	Plasma			45	g	10.8	cm																																	"Collected during wet seasons, but no rain before and during the sampling days."	2023/01/16	2023/01/16
PRA000124	SAA009459	ST008	8139			J-Tilapia4	"Oreochromis spp."	Tilapia	2015	1						Aisa	Indoneasia	"Kemayoran Golf Lake, Jakarta"	-6.1375		106.8494		Unknown	Plasma			40	g	10.7	cm																																	"Collected during wet seasons, but no rain before and during the sampling days."	2023/01/16	2023/01/16
PRA000124	SAA009460	ST008	8139			J-Tilapia5	"Oreochromis spp."	Tilapia	2015	1						Aisa	Indoneasia	"Kemayoran Golf Lake, Jakarta"	-6.1375		106.8494		Unknown	Plasma			51	g	11.5	cm																																	"Collected during wet seasons, but no rain before and during the sampling days."	2023/01/16	2023/01/16
PRA000124	SAA009461	ST008	8139			J-Tilapia6	"Oreochromis spp."	Tilapia	2015	1						Aisa	Indoneasia	"Kemayoran Golf Lake, Jakarta"	-6.1375		106.8494		Unknown	Plasma			31	g	10.4	cm																																	"Collected during wet seasons, but no rain before and during the sampling days."	2023/01/16	2023/01/16
PRA000124	SAA009462	ST008	8139			J-Tilapia7	"Oreochromis spp."	Tilapia	2015	1						Aisa	Indoneasia	"Kemayoran Golf Lake, Jakarta"	-6.1375		106.8494		Unknown	Plasma			40	g	11.4	cm																																	"Collected during wet seasons, but no rain before and during the sampling days."	2023/01/16	2023/01/16
PRA000124	SAA009463	ST008	8139			J-Tilapia8	"Oreochromis spp."	Tilapia	2015	1						Aisa	Indoneasia	"Kemayoran Golf Lake, Jakarta"	-6.1375		106.8494		Unknown	Plasma			36	g	10.7	cm																																	"Collected during wet seasons, but no rain before and during the sampling days."	2023/01/16	2023/01/16
PRA000124	SAA009464	ST008	8139			J-Tilapia9	"Oreochromis spp."	Tilapia	2015	1						Aisa	Indoneasia	"Kemayoran Golf Lake, Jakarta"	-6.1375		106.8494		Unknown	Plasma			42	g	10.8	cm																																	"Collected during wet seasons, but no rain before and during the sampling days."	2023/01/16	2023/01/16
PRA000124	SAA009465	ST008	8000			K-Catfish1	"Pangasius spp."	"Shark catfish"	2015	1						Aisa	Indoneasia	"Waduk Sunter Utara Lake, Jakarta"	-6.1268		106.8725		Unknown	Plasma			86	g	17.9	cm																																	"Collected during wet seasons, but no rain before and during the sampling days."	2023/01/16	2023/01/16
PRA000124	SAA009466	ST008	64152			"K-Snakehead murrel"	"Channa striata"	"Snakehead murrel"	2015	1						Aisa	Indoneasia	"Waduk Sunter Utara Lake, Jakarta"	-6.1268		106.8725		Unknown	Plasma			82	g	18.7	cm																																	"Collected during wet seasons, but no rain before and during the sampling days."	2023/01/16	2023/01/16
PRA000124	SAA009467	ST008	8139			L-Tilapia1	"Oreochromis spp."	Tilapia	2015	1						Aisa	Indoneasia	"Waduk Sunter Utara Pond, Jakarta"	-6.1243		106.8696		Unknown	Plasma			126	g	14.5	cm																																	"Collected during wet seasons, but no rain before and during the sampling days."	2023/01/16	2023/01/16
PRA000124	SAA009468	ST008	8139			L-Tilapia2	"Oreochromis spp."	Tilapia	2015	1						Aisa	Indoneasia	"Waduk Sunter Utara Pond, Jakarta"	-6.1243		106.8696		Female	Plasma			124	g	14.6	cm																																	"Collected during wet seasons, but no rain before and during the sampling days."	2023/01/16	2023/01/16
PRA000124	SAA009469	ST008	8139			L-Tilapia3	"Oreochromis spp."	Tilapia	2015	1						Aisa	Indoneasia	"Waduk Sunter Utara Pond, Jakarta"	-6.1243		106.8696		Unknown	Plasma			173	g	17.1	cm																																	"Collected during wet seasons, but no rain before and during the sampling days."	2023/01/16	2023/01/16
PRA000124	SAA009470	ST008	8139			L-Tilapia4	"Oreochromis spp."	Tilapia	2015	1						Aisa	Indoneasia	"Waduk Sunter Utara Pond, Jakarta"	-6.1243		106.8696		Unknown	Plasma			168	g	16.3	cm																																	"Collected during wet seasons, but no rain before and during the sampling days."	2023/01/16	2023/01/16
PRA000124	SAA009471	ST008	8139			L-Tilapia5	"Oreochromis spp."	Tilapia	2015	1						Aisa	Indoneasia	"Waduk Sunter Utara Pond, Jakarta"	-6.1243		106.8696		Unknown	Plasma			117	g	14.4	cm																																	"Collected during wet seasons, but no rain before and during the sampling days."	2023/01/16	2023/01/16
PRA000124	SAA009472	ST008	8139			L-Tilapia6	"Oreochromis spp."	Tilapia	2015	1						Aisa	Indoneasia	"Waduk Sunter Utara Pond, Jakarta"	-6.1243		106.8696		Unknown	Plasma			124	g	14.3	cm																																	"Collected during wet seasons, but no rain before and during the sampling days."	2023/01/16	2023/01/16
PRA000124	SAA009473	ST008	8139			L-Tilapia7	"Oreochromis spp."	Tilapia	2015	1						Aisa	Indoneasia	"Waduk Sunter Utara Pond, Jakarta"	-6.1243		106.8696		Unknown	Plasma			101	g	13.3	cm																																	"Collected during wet seasons, but no rain before and during the sampling days."	2023/01/16	2023/01/16
PRA000124	SAA009474	ST008	8139			L-Tilapia8	"Oreochromis spp."	Tilapia	2015	1						Aisa	Indoneasia	"Waduk Sunter Utara Pond, Jakarta"	-6.1243		106.8696		Unknown	Plasma			291	g	19.9	cm																																	"Collected during wet seasons, but no rain before and during the sampling days."	2023/01/16	2023/01/16
PRA000124	SAA009475	ST008	8128			L-Tilapia9	"Oreochromis niloticus"	"Nile tilapia"	2015	1						Aisa	Indoneasia	"Waduk Sunter Utara Pond, Jakarta"	-6.1243		106.8696		Unknown	Plasma			120	g	14.4	cm																																	"Collected during wet seasons, but no rain before and during the sampling days."	2023/01/16	2023/01/16
PRA000124	SAA009476	ST008	8128			L-Tilapia10	"Oreochromis niloticus"	"Nile tilapia"	2015	1						Aisa	Indoneasia	"Waduk Sunter Utara Pond, Jakarta"	-6.1243		106.8696		Unknown	Plasma			139	g	14.7	cm																																	"Collected during wet seasons, but no rain before and during the sampling days."	2023/01/16	2023/01/16
PRA000124	SAA009477	ST008	164016			"L-Janitor fish1"	"Pterygoplichthys spp."	"Janitor fish/Sailfin catfish"	2015	1						Aisa	Indoneasia	"Waduk Sunter Utara Pond, Jakarta"	-6.1243		106.8696		Unknown	Plasma			241	g	22.5	cm																																	"Collected during wet seasons, but no rain before and during the sampling days."	2023/01/16	2023/01/16
PRA000124	SAA009478	ST008	8128			M-Tilapia1	"Oreochromis niloticus"	"Nile tilapia"	2015	1						Aisa	Indoneasia	"Situ Gintung Lake, Tangerang"	-6.3067		106.7639		Female	Plasma			209	g	17.3	cm																																	"Collected during wet seasons, but no rain before and during the sampling days."	2023/01/16	2023/01/16
PRA000124	SAA009479	ST008	8128			M-Tilapia2	"Oreochromis niloticus"	"Nile tilapia"	2015	1						Aisa	Indoneasia	"Situ Gintung Lake, Tangerang"	-6.3067		106.7639		Unknown	Plasma			153	g	16.3	cm																																	"Collected during wet seasons, but no rain before and during the sampling days."	2023/01/16	2023/01/16
PRA000124	SAA009480	ST008	8128			M-Tilapia3	"Oreochromis niloticus"	"Nile tilapia"	2015	1						Aisa	Indoneasia	"Situ Gintung Lake, Tangerang"	-6.3067		106.7639		Unknown	Plasma			156	g	16.1	cm																																	"Collected during wet seasons, but no rain before and during the sampling days."	2023/01/16	2023/01/16
PRA000124	SAA009481	ST008	8128			M-Tilapia4	"Oreochromis niloticus"	"Nile tilapia"	2015	1						Aisa	Indoneasia	"Situ Gintung Lake, Tangerang"	-6.3067		106.7639		Unknown	Plasma			182	g	16.9	cm																																	"Collected during wet seasons, but no rain before and during the sampling days."	2023/01/16	2023/01/16
PRA000124	SAA009482	ST008	8128			M-Tilapia5	"Oreochromis niloticus"	"Nile tilapia"	2015	1						Aisa	Indoneasia	"Situ Gintung Lake, Tangerang"	-6.3067		106.7639		Unknown	Plasma			132	g	15	cm																																	"Collected during wet seasons, but no rain before and during the sampling days."	2023/01/16	2023/01/16
PRA000124	SAA009483	ST008	8139			N-Tilapia1	"Oreochromis spp."	Tilapia	2015	1						Aisa	Indoneasia	"Situ Rawa Cipondoh, Tangerang"	-6.1948		106.6716		Unknown	Plasma			359	g	21.7	cm																																	"Collected during wet seasons, but no rain before and during the sampling days."	2023/01/16	2023/01/16
PRA000124	SAA009484	ST008	8139			N-Tilapia2	"Oreochromis spp."	Tilapia	2015	1						Aisa	Indoneasia	"Situ Rawa Cipondoh, Tangerang"	-6.1948		106.6716		Male	Plasma			550	g	26	cm																																	"Collected during wet seasons, but no rain before and during the sampling days."	2023/01/16	2023/01/16
PRA000124	SAA009485	ST008	8139			N-Tilapia3	"Oreochromis spp."	Tilapia	2015	1						Aisa	Indoneasia	"Situ Rawa Cipondoh, Tangerang"	-6.1948		106.6716		Unknown	Plasma			275	g	19.5	cm																																	"Collected during wet seasons, but no rain before and during the sampling days."	2023/01/16	2023/01/16
PRA000124	SAA009486	ST008	8139			N-Tilapia4	"Oreochromis spp."	Tilapia	2015	1						Aisa	Indoneasia	"Situ Rawa Cipondoh, Tangerang"	-6.1948		106.6716		Unknown	Plasma			421	g	23.2	cm																																	"Collected during wet seasons, but no rain before and during the sampling days."	2023/01/16	2023/01/16
PRA000124	SAA009487	ST008	8139			N-Tilapia5	"Oreochromis spp."	Tilapia	2015	1						Aisa	Indoneasia	"Situ Rawa Cipondoh, Tangerang"	-6.1948		106.6716		Unknown	Plasma			520	g	24.2	cm																																	"Collected during wet seasons, but no rain before and during the sampling days."	2023/01/16	2023/01/16
PRA000124	SAA009488	ST008	13012			R-Catfish1	"Clarias spp."	"Freshwater catfish"	2015	9						Aisa	Vietnam	"Yen So Lake, Hanoi"	20.9746		105.8651		Unknown	Plasma			286	g	28	cm																																	"Collected during wet seasons, but no rain before and during the sampling days."	2023/01/16	2023/01/16
PRA000124	SAA009489	ST008	8139			R-Tilapia1	"Oreochromis spp."	Tilapia	2015	9						Aisa	Vietnam	"Yen So Lake, Hanoi"	20.9746		105.8651		Unknown	Plasma			157	g	19	cm																																	"Collected during wet seasons, but no rain before and during the sampling days."	2023/01/16	2023/01/16
PRA000124	SAA009490	ST008	8139			R-Tilapia2	"Oreochromis spp."	Tilapia	2015	9						Aisa	Vietnam	"Yen So Lake, Hanoi"	20.9746		105.8651		Unknown	Plasma			214	g	17	cm																																	"Collected during wet seasons, but no rain before and during the sampling days."	2023/01/16	2023/01/16
PRA000124	SAA009491	ST008	8139			R-Tilapia3	"Oreochromis spp."	Tilapia	2015	9						Aisa	Vietnam	"Yen So Lake, Hanoi"	20.9746		105.8651		Unknown	Plasma			180	g	15.7	cm																																	"Collected during wet seasons, but no rain before and during the sampling days."	2023/01/16	2023/01/16
PRA000124	SAA009492	ST008	13095			R-Carp1	"Hypophthalmichthys molitrix"	"Silver carp"	2015	9						Aisa	Vietnam	"Yen So Lake, Hanoi"	20.9746		105.8651		Unknown	Plasma			253	g	25.8	cm																																	"Collected during wet seasons, but no rain before and during the sampling days."	2023/01/16	2023/01/16
PRA000124	SAA009493	ST008	7959			R-Carp2	"Ctenopharyngodon idella"	"Grass carp"	2015	9						Aisa	Vietnam	"Yen So Lake, Hanoi"	20.9746		105.8651		Unknown	Plasma			656	g	34.1	cm																																	"Collected during wet seasons, but no rain before and during the sampling days."	2023/01/16	2023/01/16
PRA000124	SAA009494	ST008	7959			R-Carp3	"Ctenopharyngodon idella"	"Grass carp"	2015	9						Aisa	Vietnam	"Yen So Lake, Hanoi"	20.9746		105.8651		Unknown	Plasma			500	g	31	cm																																	"Collected during wet seasons, but no rain before and during the sampling days."	2023/01/16	2023/01/16
PRA000124	SAA009495	ST008	172907			R-Carp4	"Cirrhinus molitorella"	"Mud carp"	2015	9						Aisa	Vietnam	"Yen So Lake, Hanoi"	20.9694		105.8588		Unknown	Plasma			234	g	23.2	cm																																	"Collected during wet seasons, but no rain before and during the sampling days."	2023/01/16	2023/01/16
PRA000124	SAA009496	ST008	13095			R-Carp5	"Hypophthalmichthys molitrix"	"Silver carp"	2015	9						Aisa	Vietnam	"Yen So Lake, Hanoi"	20.9694		105.8588		Unknown	Plasma			347	g	26.5	cm																																	"Collected during wet seasons, but no rain before and during the sampling days."	2023/01/16	2023/01/16
PRA000124	SAA009497	ST008	13095			R-Carp6	"Hypophthalmichthys molitrix"	"Silver carp"	2015	9						Aisa	Vietnam	"Yen So Lake, Hanoi"	20.9694		105.8588		Unknown	Plasma			250	g	26.5	cm																																	"Collected during wet seasons, but no rain before and during the sampling days."	2023/01/16	2023/01/16
PRA000124	SAA009498	ST008	7959			R-Carp7	"Ctenopharyngodon idella"	"Grass carp"	2015	9						Aisa	Vietnam	"Yen So Lake, Hanoi"	20.9694		105.8588		Unknown	Plasma			495	g	29	cm																																	"Collected during wet seasons, but no rain before and during the sampling days."	2023/01/16	2023/01/16
PRA000124	SAA009499	ST008	13095			R-Carp8	"Hypophthalmichthys molitrix"	"Silver carp"	2015	9						Aisa	Vietnam	"Yen So Lake, Hanoi"	20.9694		105.8588		Unknown	Plasma			371	g	28	cm																																	"Collected during wet seasons, but no rain before and during the sampling days."	2023/01/16	2023/01/16
PRA000124	SAA009500	ST008	13095			R-Carp9	"Hypophthalmichthys molitrix"	"Silver carp"	2015	9						Aisa	Vietnam	"Yen So Lake, Hanoi"	20.9694		105.8588		Unknown	Plasma			256	g	25.8	cm																																	"Collected during wet seasons, but no rain before and during the sampling days."	2023/01/16	2023/01/16
PRA000124	SAA009501	ST008	7959			R-Carp10	"Ctenopharyngodon idella"	"Grass carp"	2015	9						Aisa	Vietnam	"Yen So Lake, Hanoi"	20.9646		105.8516		Unknown	Plasma			792	g	36	cm																																	"Collected during wet seasons, but no rain before and during the sampling days."	2023/01/16	2023/01/16
PRA000124	SAA009502	ST008	172907			R-Carp11	"Cirrhinus molitorella"	"Mud carp"	2015	9						Aisa	Vietnam	"Yen So Lake, Hanoi"	20.9646		105.8516		Unknown	Plasma			378	g	27	cm																																	"Collected during wet seasons, but no rain before and during the sampling days."	2023/01/16	2023/01/16
PRA000124	SAA009503	ST008	7959			R-Carp12	"Ctenopharyngodon idella"	"Grass carp"	2015	9						Aisa	Vietnam	"Yen So Lake, Hanoi"	20.9646		105.8516		Unknown	Plasma			500	g	32.3	cm																																	"Collected during wet seasons, but no rain before and during the sampling days."	2023/01/16	2023/01/16
PRA000124	SAA009504	ST008	13095			R-Carp13	"Hypophthalmichthys molitrix"	"Silver carp"	2015	9						Aisa	Vietnam	"Yen So Lake, Hanoi"	20.9646		105.8516		Unknown	Plasma			357	g	28.6	cm																																	"Collected during wet seasons, but no rain before and during the sampling days."	2023/01/16	2023/01/16
PRA000124	SAA009505	ST008	13095			R-Carp14	"Hypophthalmichthys molitrix"	"Silver carp"	2015	9						Aisa	Vietnam	"Yen So Lake, Hanoi"	20.9646		105.8516		Unknown	Plasma			300	g	28	cm																																	"Collected during wet seasons, but no rain before and during the sampling days."	2023/01/16	2023/01/16
PRA000124	SAA009506	ST008	13095			R-Carp15	"Hypophthalmichthys molitrix"	"Silver carp"	2015	9						Aisa	Vietnam	"Yen So Lake, Hanoi"	20.9646		105.8516		Unknown	Plasma			340	g	29.1	cm																																	"Collected during wet seasons, but no rain before and during the sampling days."	2023/01/16	2023/01/16
PRA000124	SAA009507	ST008	13095			R-Carp16	"Hypophthalmichthys molitrix"	"Silver carp"	2015	9						Aisa	Vietnam	"Yen So Lake, Hanoi"	20.9646		105.8516		Unknown	Plasma			298	g	29	cm																																	"Collected during wet seasons, but no rain before and during the sampling days."	2023/01/16	2023/01/16
PRA000124	SAA009508	ST008	13095			R-Carp17	"Hypophthalmichthys molitrix"	"Silver carp"	2015	9						Aisa	Vietnam	"Yen So Lake, Hanoi"	20.9646		105.8516		Unknown	Plasma			342	g	28	cm																																	"Collected during wet seasons, but no rain before and during the sampling days."	2023/01/16	2023/01/16
PRA000124	SAA009509	ST008	13095			R-Carp18	"Hypophthalmichthys molitrix"	"Silver carp"	2015	9						Aisa	Vietnam	"Yen So Lake, Hanoi"	20.9646		105.8516		Unknown	Plasma			295	g	27.2	cm																																	"Collected during wet seasons, but no rain before and during the sampling days."	2023/01/16	2023/01/16
PRA000124	SAA009510	ST008	7962			S-Carp1	"Cyprinus carpio"	"Common carp"	2015	9						Aisa	Vietnam	"Da River, Hoa Binh"	20.8222		105.3378		Unknown	Plasma			774	g	31.5	cm																																	"Chosen as the control (unpoluted) site.; Collected during wet seasons, but no rain before and during the sampling days."	2023/01/16	2023/01/16
PRA000124	SAA009511	ST008	7962			S-Carp2	"Cyprinus carpio"	"Common carp"	2015	9						Aisa	Vietnam	"Da River, Hoa Binh"	20.8222		105.3378		Unknown	Plasma			340	g	23.8	cm																																	"Chosen as the control (unpoluted) site.; Collected during wet seasons, but no rain before and during the sampling days."	2023/01/16	2023/01/16
PRA000124	SAA009512	ST008	7962			S-Carp3	"Cyprinus carpio"	"Common carp"	2015	9						Aisa	Vietnam	"Da River, Hoa Binh"	20.8222		105.3378		Unknown	Plasma			370	g	26.4	cm																																	"Chosen as the control (unpoluted) site.; Collected during wet seasons, but no rain before and during the sampling days."	2023/01/16	2023/01/16
PRA000124	SAA009513	ST008	7962			S-Carp4	"Cyprinus carpio"	"Common carp"	2015	9						Aisa	Vietnam	"Da River, Hoa Binh"	20.8222		105.3378		Unknown	Plasma			960	g	38.7	cm																																	"Chosen as the control (unpoluted) site.; Collected during wet seasons, but no rain before and during the sampling days."	2023/01/16	2023/01/16
PRA000124	SAA009514	ST008	7962			S-Carp5	"Cyprinus carpio"	"Common carp"	2015	9						Aisa	Vietnam	"Da River, Hoa Binh"	20.8222		105.3378		Female	Plasma			703	g	32.8	cm																																	"Chosen as the control (unpoluted) site.; Collected during wet seasons, but no rain before and during the sampling days."	2023/01/16	2023/01/16
PRA000124	SAA009515	ST008	7962			S-Carp6	"Cyprinus carpio"	"Common carp"	2015	9						Aisa	Vietnam	"Da River, Hoa Binh"	20.8222		105.3378		Unknown	Plasma			444	g	28.4	cm																																	"Chosen as the control (unpoluted) site.; Collected during wet seasons, but no rain before and during the sampling days."	2023/01/16	2023/01/16
PRA000124	SAA009516	ST008	7962			S-Carp7	"Cyprinus carpio"	"Common carp"	2015	9						Aisa	Vietnam	"Da River, Hoa Binh"	20.8222		105.3378		Unknown	Plasma			779	g	32	cm																																	"Chosen as the control (unpoluted) site.; Collected during wet seasons, but no rain before and during the sampling days."	2023/01/16	2023/01/16
PRA000124	SAA009517	ST008	7962			S-Carp8	"Cyprinus carpio"	"Common carp"	2015	9						Aisa	Vietnam	"Da River, Hoa Binh"	20.8222		105.3378		Unknown	Plasma			795	g	34.8	cm																																	"Chosen as the control (unpoluted) site.; Collected during wet seasons, but no rain before and during the sampling days."	2023/01/16	2023/01/16
PRA000124	SAA009518	ST008	7962			S-Carp9	"Cyprinus carpio"	"Common carp"	2015	9						Aisa	Vietnam	"Da River, Hoa Binh"	20.8222		105.3378		Unknown	Plasma			459	g	26.6	cm																																	"Chosen as the control (unpoluted) site.; Collected during wet seasons, but no rain before and during the sampling days."	2023/01/16	2023/01/16
PRA000124	SAA009519	ST008	7962			S-Carp10	"Cyprinus carpio"	"Common carp"	2015	9						Aisa	Vietnam	"Da River, Hoa Binh"	20.8222		105.3378		Female	Plasma			428	g	27.7	cm																																	"Chosen as the control (unpoluted) site.; Collected during wet seasons, but no rain before and during the sampling days."	2023/01/16	2023/01/16
